2016 Cux-Wetter.de -Die Nutzung der Wetterdaten nur mit ausdrcklicher Genehmigung
Wetterdaten: Dienstag, 21.03.2017
Datum Zeit Temp. A. Feuchte A. Luftdruck Regen Wind Richtung Richtung Sonnenschein Solar Taupunkt Windchill Windben
21.03.2017 00:00 7,9 C 93 % 999,1 hPa 0,0 l/m 13,3 km/h (3 Bft) S-SW 202 0 min 0 W/m 6,8 C 3,4 C 19,3 km/h (3 Bft)
21.03.2017 00:03 7,9 C 93 % 999,1 hPa 0,0 l/m 14,6 km/h (3 Bft) W-SW 252 0 min 0 W/m 6,8 C 2,8 C 24,1 km/h (4 Bft)
21.03.2017 00:06 7,9 C 93 % 999,1 hPa 0,0 l/m 13,7 km/h (3 Bft) W-SW 254 0 min 0 W/m 6,8 C 3,2 C 22,5 km/h (4 Bft)
21.03.2017 00:09 7,9 C 93 % 999,1 hPa 0,0 l/m 14,5 km/h (3 Bft) S-SW 209 0 min 0 W/m 6,8 C 2,8 C 20,9 km/h (4 Bft)
21.03.2017 00:12 7,9 C 93 % 999,1 hPa 0,0 l/m 14,9 km/h (3 Bft) SW 225 0 min 0 W/m 6,8 C 2,6 C 30,6 km/h (5 Bft)
21.03.2017 00:15 7,8 C 93 % 999,2 hPa 0,0 l/m 12,5 km/h (2 Bft) SW 236 0 min 0 W/m 6,7 C 3,7 C 20,9 km/h (4 Bft)
21.03.2017 00:18 7,8 C 93 % 999,3 hPa 0,0 l/m 14,6 km/h (3 Bft) SW 231 0 min 0 W/m 6,7 C 2,7 C 22,5 km/h (4 Bft)
21.03.2017 00:21 7,8 C 93 % 999,3 hPa 0,0 l/m 16,3 km/h (3 Bft) SW 226 0 min 0 W/m 6,7 C 1,9 C 25,7 km/h (4 Bft)
21.03.2017 00:24 7,8 C 93 % 999,3 hPa 0,0 l/m 16,2 km/h (3 Bft) W-SW 254 0 min 0 W/m 6,7 C 1,9 C 27,4 km/h (5 Bft)
21.03.2017 00:27 7,9 C 93 % 999,3 hPa 0,0 l/m 14,9 km/h (3 Bft) W-NW 293 0 min 0 W/m 6,8 C 2,6 C 29,0 km/h (5 Bft)
21.03.2017 00:30 7,9 C 93 % 999,3 hPa 0,0 l/m 16,2 km/h (3 Bft) W-SW 246 0 min 0 W/m 6,8 C 2,1 C 27,4 km/h (5 Bft)
21.03.2017 00:33 7,9 C 94 % 999,4 hPa 0,0 l/m 14,3 km/h (3 Bft) W-SW 255 0 min 0 W/m 7,0 C 2,9 C 25,7 km/h (4 Bft)
21.03.2017 00:36 7,8 C 94 % 999,4 hPa 0,0 l/m 16,0 km/h (3 Bft) W-SW 252 0 min 0 W/m 6,9 C 2,0 C 29,0 km/h (5 Bft)
21.03.2017 00:39 7,8 C 94 % 999,4 hPa 0,0 l/m 14,2 km/h (3 Bft) W-SW 242 0 min 0 W/m 6,9 C 2,8 C 27,4 km/h (5 Bft)
21.03.2017 00:42 7,8 C 94 % 999,5 hPa 0,0 l/m 14,9 km/h (3 Bft) W 265 0 min 0 W/m 6,9 C 2,5 C 24,1 km/h (4 Bft)
21.03.2017 00:45 7,8 C 94 % 999,5 hPa 0,0 l/m 14,4 km/h (3 Bft) W-SW 242 0 min 0 W/m 6,9 C 2,7 C 25,7 km/h (4 Bft)
21.03.2017 00:48 7,8 C 94 % 999,5 hPa 0,0 l/m 14,7 km/h (3 Bft) W 271 0 min 0 W/m 6,9 C 2,6 C 24,1 km/h (4 Bft)
21.03.2017 00:51 7,8 C 94 % 999,5 hPa 0,0 l/m 14,8 km/h (3 Bft) W-SW 244 0 min 0 W/m 6,9 C 2,6 C 25,7 km/h (4 Bft)
21.03.2017 00:54 7,8 C 94 % 999,6 hPa 0,0 l/m 14,0 km/h (3 Bft) W-SW 248 0 min 0 W/m 6,9 C 2,9 C 24,1 km/h (4 Bft)
21.03.2017 00:57 7,8 C 94 % 999,6 hPa 0,0 l/m 12,6 km/h (3 Bft) SW 228 0 min 0 W/m 6,9 C 3,7 C 24,1 km/h (4 Bft)
21.03.2017 01:00 7,8 C 94 % 999,6 hPa 0,0 l/m 12,2 km/h (2 Bft) W-NW 284 0 min 0 W/m 6,9 C 3,9 C 27,4 km/h (5 Bft)
21.03.2017 01:03 7,8 C 94 % 999,7 hPa 0,0 l/m 13,9 km/h (3 Bft) W 269 0 min 0 W/m 6,9 C 3,0 C 22,5 km/h (4 Bft)
21.03.2017 01:06 7,8 C 94 % 999,7 hPa 0,0 l/m 14,2 km/h (3 Bft) W-NW 288 0 min 0 W/m 6,9 C 2,8 C 24,1 km/h (4 Bft)
21.03.2017 01:09 7,8 C 94 % 999,7 hPa 0,0 l/m 16,3 km/h (3 Bft) SW 228 0 min 0 W/m 6,9 C 1,9 C 24,1 km/h (4 Bft)
21.03.2017 01:12 7,8 C 94 % 999,7 hPa 0,0 l/m 13,5 km/h (3 Bft) W 261 0 min 0 W/m 6,9 C 3,2 C 27,4 km/h (5 Bft)
21.03.2017 01:15 7,8 C 94 % 999,7 hPa 0,0 l/m 14,1 km/h (3 Bft) W 271 0 min 0 W/m 6,9 C 2,9 C 22,5 km/h (4 Bft)
21.03.2017 01:18 7,8 C 94 % 999,7 hPa 0,0 l/m 11,6 km/h (2 Bft) W-SW 250 0 min 0 W/m 6,9 C 4,2 C 24,1 km/h (4 Bft)
21.03.2017 01:21 7,8 C 94 % 999,8 hPa 0,0 l/m 14,7 km/h (3 Bft) S-SW 210 0 min 0 W/m 6,9 C 2,6 C 25,7 km/h (4 Bft)
21.03.2017 01:24 7,7 C 94 % 999,8 hPa 0,0 l/m 15,0 km/h (3 Bft) SW 217 0 min 0 W/m 6,8 C 2,3 C 24,1 km/h (4 Bft)
21.03.2017 01:27 7,7 C 94 % 999,8 hPa 0,0 l/m 13,8 km/h (3 Bft) SW 229 0 min 0 W/m 6,8 C 2,9 C 22,5 km/h (4 Bft)
21.03.2017 01:30 7,7 C 94 % 999,9 hPa 0,0 l/m 12,2 km/h (2 Bft) W 277 0 min 0 W/m 6,8 C 3,8 C 22,5 km/h (4 Bft)
21.03.2017 01:33 7,7 C 94 % 999,9 hPa 0,0 l/m 13,9 km/h (3 Bft) W-SW 256 0 min 0 W/m 6,8 C 2,9 C 25,7 km/h (4 Bft)
21.03.2017 01:36 7,6 C 94 % 999,9 hPa 0,0 l/m 12,9 km/h (3 Bft) SW 219 0 min 0 W/m 6,7 C 3,3 C 24,1 km/h (4 Bft)
21.03.2017 01:39 7,6 C 95 % 999,9 hPa 0,0 l/m 14,8 km/h (3 Bft) SW 234 0 min 0 W/m 6,9 C 2,3 C 27,4 km/h (5 Bft)
21.03.2017 01:42 7,6 C 95 % 1000,0 hPa 0,0 l/m 14,8 km/h (3 Bft) W-SW 248 0 min 0 W/m 6,9 C 2,3 C 25,7 km/h (4 Bft)
21.03.2017 01:45 7,6 C 95 % 999,9 hPa 0,0 l/m 15,6 km/h (3 Bft) W-SW 245 0 min 0 W/m 6,9 C 2,0 C 29,0 km/h (5 Bft)
21.03.2017 01:48 7,7 C 95 % 999,9 hPa 0,0 l/m 12,8 km/h (3 Bft) W-SW 250 0 min 0 W/m 7,0 C 3,4 C 22,5 km/h (4 Bft)
21.03.2017 01:51 7,7 C 95 % 1000,0 hPa 0,0 l/m 12,0 km/h (2 Bft) W-SW 238 0 min 0 W/m 7,0 C 3,9 C 22,5 km/h (4 Bft)
21.03.2017 01:54 7,6 C 94 % 999,9 hPa 0,0 l/m 15,7 km/h (3 Bft) W-SW 257 0 min 0 W/m 6,7 C 1,9 C 29,0 km/h (5 Bft)
21.03.2017 01:57 7,6 C 94 % 1000,0 hPa 0,0 l/m 15,1 km/h (3 Bft) SW 224 0 min 0 W/m 6,7 C 2,2 C 32,2 km/h (5 Bft)
21.03.2017 02:00 7,6 C 94 % 1000,0 hPa 0,0 l/m 13,5 km/h (3 Bft) W-NW 290 0 min 0 W/m 6,7 C 3,0 C 24,1 km/h (4 Bft)
21.03.2017 02:03 7,6 C 94 % 1000,1 hPa 0,0 l/m 15,0 km/h (3 Bft) W-SW 257 0 min 0 W/m 6,7 C 2,2 C 30,6 km/h (5 Bft)
21.03.2017 02:06 7,5 C 94 % 1000,1 hPa 0,0 l/m 13,2 km/h (3 Bft) W-SW 253 0 min 0 W/m 6,6 C 3,0 C 24,1 km/h (4 Bft)
21.03.2017 02:09 7,5 C 94 % 1000,1 hPa 0,0 l/m 14,7 km/h (3 Bft) W 278 0 min 0 W/m 6,6 C 2,2 C 24,1 km/h (4 Bft)
21.03.2017 02:12 7,4 C 94 % 1000,2 hPa 0,0 l/m 14,7 km/h (3 Bft) SW 232 0 min 0 W/m 6,5 C 2,1 C 22,5 km/h (4 Bft)
21.03.2017 02:15 7,4 C 94 % 1000,2 hPa 0,0 l/m 12,6 km/h (3 Bft) W-SW 250 0 min 0 W/m 6,5 C 3,2 C 17,7 km/h (3 Bft)
21.03.2017 02:18 7,4 C 94 % 1000,2 hPa 0,0 l/m 17,0 km/h (3 Bft) W 280 0 min 0 W/m 6,5 C 1,1 C 29,0 km/h (5 Bft)
21.03.2017 02:21 7,4 C 94 % 1000,2 hPa 0,0 l/m 15,7 km/h (3 Bft) W 281 0 min 0 W/m 6,5 C 1,7 C 25,7 km/h (4 Bft)
21.03.2017 02:24 7,3 C 94 % 1000,2 hPa 0,0 l/m 13,7 km/h (3 Bft) W-SW 238 0 min 0 W/m 6,4 C 2,5 C 25,7 km/h (4 Bft)
21.03.2017 02:27 7,3 C 94 % 1000,3 hPa 0,0 l/m 13,5 km/h (3 Bft) W-SW 244 0 min 0 W/m 6,4 C 2,6 C 24,1 km/h (4 Bft)
21.03.2017 02:30 7,3 C 94 % 1000,2 hPa 0,0 l/m 13,7 km/h (3 Bft) W-SW 253 0 min 0 W/m 6,4 C 2,5 C 25,7 km/h (4 Bft)
21.03.2017 02:33 7,3 C 94 % 1000,2 hPa 0,0 l/m 14,7 km/h (3 Bft) W 269 0 min 0 W/m 6,4 C 2,0 C 25,7 km/h (4 Bft)
21.03.2017 02:36 7,3 C 94 % 1000,1 hPa 0,0 l/m 16,0 km/h (3 Bft) W-SW 250 0 min 0 W/m 6,4 C 1,4 C 33,8 km/h (5 Bft)
21.03.2017 02:39 7,3 C 94 % 1000,1 hPa 0,0 l/m 15,1 km/h (3 Bft) W-SW 238 0 min 0 W/m 6,4 C 1,8 C 25,7 km/h (4 Bft)
21.03.2017 02:42 7,3 C 94 % 1000,1 hPa 0,0 l/m 13,0 km/h (3 Bft) W-NW 284 0 min 0 W/m 6,4 C 2,9 C 19,3 km/h (3 Bft)
21.03.2017 02:45 7,3 C 94 % 1000,1 hPa 0,0 l/m 12,9 km/h (3 Bft) W-SW 242 0 min 0 W/m 6,4 C 2,9 C 25,7 km/h (4 Bft)
21.03.2017 02:48 7,3 C 93 % 1000,2 hPa 0,0 l/m 13,3 km/h (3 Bft) W-SW 243 0 min 0 W/m 6,2 C 2,7 C 27,4 km/h (5 Bft)
21.03.2017 02:51 7,3 C 93 % 1000,2 hPa 0,0 l/m 13,2 km/h (3 Bft) W-SW 252 0 min 0 W/m 6,2 C 2,8 C 24,1 km/h (4 Bft)
21.03.2017 02:54 7,3 C 93 % 1000,2 hPa 0,0 l/m 10,4 km/h (2 Bft) W 267 0 min 0 W/m 6,2 C 4,4 C 20,9 km/h (4 Bft)
21.03.2017 02:57 7,2 C 93 % 1000,2 hPa 0,0 l/m 12,1 km/h (2 Bft) S-SW 207 0 min 0 W/m 6,1 C 3,2 C 22,5 km/h (4 Bft)
21.03.2017 03:00 7,2 C 93 % 1000,3 hPa 0,0 l/m 12,7 km/h (3 Bft) SW 235 0 min 0 W/m 6,1 C 2,9 C 20,9 km/h (4 Bft)
21.03.2017 03:03 7,2 C 93 % 1000,3 hPa 0,0 l/m 13,0 km/h (3 Bft) W 264 0 min 0 W/m 6,1 C 2,7 C 22,5 km/h (4 Bft)
21.03.2017 03:06 7,2 C 93 % 1000,3 hPa 0,0 l/m 13,7 km/h (3 Bft) W-SW 257 0 min 0 W/m 6,1 C 2,4 C 20,9 km/h (4 Bft)
21.03.2017 03:09 7,1 C 93 % 1000,3 hPa 0,0 l/m 10,1 km/h (2 Bft) SW 236 0 min 0 W/m 6,0 C 4,3 C 16,1 km/h (3 Bft)
21.03.2017 03:12 7,1 C 94 % 1000,4 hPa 0,0 l/m 11,2 km/h (2 Bft) W-SW 249 0 min 0 W/m 6,2 C 3,6 C 19,3 km/h (3 Bft)
21.03.2017 03:15 7,1 C 94 % 1000,4 hPa 0,0 l/m 12,0 km/h (2 Bft) W 263 0 min 0 W/m 6,2 C 3,2 C 20,9 km/h (4 Bft)
21.03.2017 03:18 7,0 C 94 % 1000,4 hPa 0,0 l/m 11,3 km/h (2 Bft) W-SW 249 0 min 0 W/m 6,1 C 3,5 C 19,3 km/h (3 Bft)
21.03.2017 03:21 7,0 C 94 % 1000,4 hPa 0,0 l/m 11,8 km/h (2 Bft) SW 234 0 min 0 W/m 6,1 C 3,2 C 19,3 km/h (3 Bft)
21.03.2017 03:24 7,0 C 94 % 1000,4 hPa 0,0 l/m 12,7 km/h (3 Bft) SW 222 0 min 0 W/m 6,1 C 2,7 C 20,9 km/h (4 Bft)
21.03.2017 03:27 6,9 C 94 % 1000,4 hPa 0,0 l/m 9,3 km/h (2 Bft) S-SW 192 0 min 0 W/m 6,0 C 4,6 C 17,7 km/h (3 Bft)
21.03.2017 03:30 6,9 C 94 % 1000,4 hPa 0,0 l/m 12,8 km/h (3 Bft) W-SW 244 0 min 0 W/m 6,0 C 2,5 C 17,7 km/h (3 Bft)
21.03.2017 03:33 6,9 C 94 % 1000,4 hPa 0,0 l/m 12,0 km/h (2 Bft) W-NW 290 0 min 0 W/m 6,0 C 2,9 C 17,7 km/h (3 Bft)
21.03.2017 03:36 6,9 C 93 % 1000,4 hPa 0,0 l/m 10,5 km/h (2 Bft) W 259 0 min 0 W/m 5,8 C 3,8 C 19,3 km/h (3 Bft)
21.03.2017 03:39 6,9 C 94 % 1000,5 hPa 0,0 l/m 13,0 km/h (3 Bft) W-SW 237 0 min 0 W/m 6,0 C 2,4 C 24,1 km/h (4 Bft)
21.03.2017 03:42 6,9 C 94 % 1000,5 hPa 0,0 l/m 13,4 km/h (3 Bft) W-SW 239 0 min 0 W/m 6,0 C 2,2 C 24,1 km/h (4 Bft)
21.03.2017 03:45 7,0 C 94 % 1000,5 hPa 0,0 l/m 13,1 km/h (3 Bft) S-SW 209 0 min 0 W/m 6,1 C 2,5 C 22,5 km/h (4 Bft)
21.03.2017 03:48 7,0 C 94 % 1000,5 hPa 0,0 l/m 13,3 km/h (3 Bft) SW 233 0 min 0 W/m 6,1 C 2,3 C 25,7 km/h (4 Bft)
21.03.2017 03:51 7,0 C 94 % 1000,5 hPa 0,0 l/m 12,5 km/h (2 Bft) W-SW 237 0 min 0 W/m 6,1 C 2,8 C 20,9 km/h (4 Bft)
21.03.2017 03:54 7,0 C 94 % 1000,5 hPa 0,0 l/m 14,6 km/h (3 Bft) SW 232 0 min 0 W/m 6,1 C 1,7 C 24,1 km/h (4 Bft)
21.03.2017 03:57 7,0 C 94 % 1000,6 hPa 0,0 l/m 13,1 km/h (3 Bft) SW 219 0 min 0 W/m 6,1 C 2,5 C 19,3 km/h (3 Bft)
21.03.2017 04:00 7,0 C 94 % 1000,5 hPa 0,0 l/m 12,2 km/h (2 Bft) W-SW 243 0 min 0 W/m 6,1 C 2,9 C 22,5 km/h (4 Bft)
21.03.2017 04:03 6,9 C 94 % 1000,5 hPa 0,0 l/m 11,0 km/h (2 Bft) W 273 0 min 0 W/m 6,0 C 3,5 C 17,7 km/h (3 Bft)
21.03.2017 04:06 6,9 C 93 % 1000,5 hPa 0,0 l/m 13,4 km/h (3 Bft) W-SW 242 0 min 0 W/m 5,8 C 2,2 C 20,9 km/h (4 Bft)
21.03.2017 04:09 6,9 C 93 % 1000,5 hPa 0,0 l/m 11,7 km/h (2 Bft) SW 217 0 min 0 W/m 5,8 C 3,1 C 19,3 km/h (3 Bft)
21.03.2017 04:12 6,8 C 93 % 1000,5 hPa 0,0 l/m 12,7 km/h (3 Bft) SW 230 0 min 0 W/m 5,7 C 2,4 C 19,3 km/h (3 Bft)
21.03.2017 04:15 6,8 C 94 % 1000,5 hPa 0,0 l/m 11,2 km/h (2 Bft) W-SW 252 0 min 0 W/m 5,9 C 3,3 C 17,7 km/h (3 Bft)
21.03.2017 04:18 6,8 C 94 % 1000,5 hPa 0,0 l/m 14,7 km/h (3 Bft) SW 225 0 min 0 W/m 5,9 C 1,4 C 22,5 km/h (4 Bft)
21.03.2017 04:21 6,8 C 94 % 1000,6 hPa 0,0 l/m 15,1 km/h (3 Bft) W-SW 240 0 min 0 W/m 5,9 C 1,2 C 25,7 km/h (4 Bft)
21.03.2017 04:24 6,8 C 94 % 1000,6 hPa 0,0 l/m 15,7 km/h (3 Bft) W-SW 246 0 min 0 W/m 5,9 C 0,9 C 25,7 km/h (4 Bft)
21.03.2017 04:27 6,8 C 94 % 1000,7 hPa 0,0 l/m 16,7 km/h (3 Bft) W 259 0 min 0 W/m 5,9 C 0,5 C 24,1 km/h (4 Bft)
21.03.2017 04:30 6,8 C 94 % 1000,6 hPa 0,0 l/m 15,9 km/h (3 Bft) SW 219 0 min 0 W/m 5,9 C 0,8 C 24,1 km/h (4 Bft)
21.03.2017 04:33 6,8 C 94 % 1000,6 hPa 0,0 l/m 12,4 km/h (2 Bft) S-SW 201 0 min 0 W/m 5,9 C 2,6 C 20,9 km/h (4 Bft)
21.03.2017 04:36 6,8 C 94 % 1000,7 hPa 0,0 l/m 13,3 km/h (3 Bft) SW 225 0 min 0 W/m 5,9 C 2,1 C 20,9 km/h (4 Bft)
21.03.2017 04:39 6,7 C 94 % 1000,7 hPa 0,0 l/m 13,7 km/h (3 Bft) SW 218 0 min 0 W/m 5,8 C 1,8 C 20,9 km/h (4 Bft)
21.03.2017 04:42 6,7 C 94 % 1000,8 hPa 0,0 l/m 13,7 km/h (3 Bft) SW 221 0 min 0 W/m 5,8 C 1,8 C 20,9 km/h (4 Bft)
21.03.2017 04:45 6,7 C 94 % 1000,7 hPa 0,0 l/m 13,4 km/h (3 Bft) S-SW 213 0 min 0 W/m 5,8 C 1,9 C 20,9 km/h (4 Bft)
21.03.2017 04:48 6,6 C 94 % 1000,7 hPa 0,0 l/m 13,5 km/h (3 Bft) W-SW 244 0 min 0 W/m 5,7 C 1,8 C 20,9 km/h (4 Bft)
21.03.2017 04:51 6,6 C 94 % 1000,7 hPa 0,0 l/m 15,0 km/h (3 Bft) S-SW 194 0 min 0 W/m 5,7 C 1,0 C 20,9 km/h (4 Bft)
21.03.2017 04:54 6,6 C 94 % 1000,7 hPa 0,0 l/m 12,2 km/h (2 Bft) SW 215 0 min 0 W/m 5,7 C 2,5 C 19,3 km/h (3 Bft)
21.03.2017 04:57 6,6 C 94 % 1000,7 hPa 0,0 l/m 12,9 km/h (3 Bft) W-SW 246 0 min 0 W/m 5,7 C 2,1 C 24,1 km/h (4 Bft)
21.03.2017 05:00 6,5 C 94 % 1000,7 hPa 0,0 l/m 14,3 km/h (3 Bft) SW 221 0 min 0 W/m 5,6 C 1,2 C 20,9 km/h (4 Bft)
21.03.2017 05:03 6,5 C 95 % 1000,7 hPa 0,0 l/m 14,3 km/h (3 Bft) S-SW 194 0 min 0 W/m 5,8 C 1,2 C 20,9 km/h (4 Bft)
21.03.2017 05:06 6,5 C 95 % 1000,7 hPa 0,0 l/m 13,3 km/h (3 Bft) S-SW 205 0 min 0 W/m 5,8 C 1,8 C 20,9 km/h (4 Bft)
21.03.2017 05:09 6,5 C 95 % 1000,7 hPa 0,0 l/m 13,5 km/h (3 Bft) SW 223 0 min 0 W/m 5,8 C 1,7 C 19,3 km/h (3 Bft)
21.03.2017 05:12 6,5 C 94 % 1000,8 hPa 0,0 l/m 13,5 km/h (3 Bft) S-SW 211 0 min 0 W/m 5,6 C 1,7 C 22,5 km/h (4 Bft)
21.03.2017 05:15 6,4 C 95 % 1000,7 hPa 0,0 l/m 13,0 km/h (3 Bft) SW 221 0 min 0 W/m 5,7 C 1,8 C 17,7 km/h (3 Bft)
21.03.2017 05:18 6,5 C 95 % 1000,7 hPa 0,0 l/m 14,2 km/h (3 Bft) SW 234 0 min 0 W/m 5,8 C 1,3 C 22,5 km/h (4 Bft)
21.03.2017 05:21 6,4 C 95 % 1000,8 hPa 0,0 l/m 13,1 km/h (3 Bft) S-SW 209 0 min 0 W/m 5,7 C 1,7 C 19,3 km/h (3 Bft)
21.03.2017 05:24 6,4 C 95 % 1000,8 hPa 0,0 l/m 13,6 km/h (3 Bft) SW 223 0 min 0 W/m 5,7 C 1,5 C 22,5 km/h (4 Bft)
21.03.2017 05:27 6,4 C 95 % 1000,7 hPa 0,0 l/m 14,4 km/h (3 Bft) SW 224 0 min 0 W/m 5,7 C 1,1 C 29,0 km/h (5 Bft)
21.03.2017 05:30 6,4 C 95 % 1000,7 hPa 0,0 l/m 16,3 km/h (3 Bft) W-SW 239 0 min 0 W/m 5,7 C 0,2 C 24,1 km/h (4 Bft)
21.03.2017 05:33 6,4 C 95 % 1000,7 hPa 0,0 l/m 16,1 km/h (3 Bft) W-SW 247 0 min 0 W/m 5,7 C 0,3 C 27,4 km/h (5 Bft)
21.03.2017 05:36 6,5 C 95 % 1000,8 hPa 0,0 l/m 16,0 km/h (3 Bft) SW 234 0 min 0 W/m 5,8 C 0,4 C 22,5 km/h (4 Bft)
21.03.2017 05:39 6,4 C 95 % 1000,7 hPa 0,0 l/m 13,9 km/h (3 Bft) SW 217 0 min 0 W/m 5,7 C 1,3 C 20,9 km/h (4 Bft)
21.03.2017 05:42 6,4 C 95 % 1000,7 hPa 0,0 l/m 13,8 km/h (3 Bft) SW 233 0 min 0 W/m 5,7 C 1,4 C 20,9 km/h (4 Bft)
21.03.2017 05:45 6,4 C 95 % 1000,8 hPa 0,0 l/m 14,7 km/h (3 Bft) W 259 0 min 0 W/m 5,7 C 0,9 C 22,5 km/h (4 Bft)
21.03.2017 05:48 6,4 C 95 % 1000,8 hPa 0,0 l/m 15,8 km/h (3 Bft) SW 231 0 min 0 W/m 5,7 C 0,4 C 24,1 km/h (4 Bft)
21.03.2017 05:51 6,4 C 95 % 1000,8 hPa 0,0 l/m 15,0 km/h (3 Bft) SW 222 0 min 0 W/m 5,7 C 0,8 C 22,5 km/h (4 Bft)
21.03.2017 05:54 6,4 C 95 % 1000,8 hPa 0,0 l/m 15,7 km/h (3 Bft) SW 226 0 min 0 W/m 5,7 C 0,4 C 22,5 km/h (4 Bft)
21.03.2017 05:57 6,4 C 95 % 1000,9 hPa 0,0 l/m 16,9 km/h (3 Bft) SW 229 0 min 0 W/m 5,7 C -0,1 C 27,4 km/h (5 Bft)
21.03.2017 06:00 6,4 C 95 % 1000,8 hPa 0,0 l/m 15,4 km/h (3 Bft) SW 217 0 min 0 W/m 5,7 C 0,6 C 22,5 km/h (4 Bft)
21.03.2017 06:03 6,4 C 95 % 1000,8 hPa 0,0 l/m 12,7 km/h (3 Bft) SW 218 0 min 0 W/m 5,7 C 2,0 C 20,9 km/h (4 Bft)
21.03.2017 06:06 6,3 C 95 % 1000,8 hPa 0,0 l/m 13,4 km/h (3 Bft) W 261 0 min 0 W/m 5,6 C 1,5 C 19,3 km/h (3 Bft)
21.03.2017 06:09 6,3 C 95 % 1000,8 hPa 0,0 l/m 13,3 km/h (3 Bft) S-SW 208 0 min 0 W/m 5,6 C 1,5 C 24,1 km/h (4 Bft)
21.03.2017 06:12 6,3 C 95 % 1000,8 hPa 0,0 l/m 14,9 km/h (3 Bft) SW 229 0 min 0 W/m 5,6 C 0,7 C 22,5 km/h (4 Bft)
21.03.2017 06:15 6,3 C 96 % 1000,8 hPa 0,0 l/m 14,0 km/h (3 Bft) SW 215 0 min 0 W/m 5,7 C 1,2 C 20,9 km/h (4 Bft)
21.03.2017 06:18 6,3 C 95 % 1000,8 hPa 0,0 l/m 12,8 km/h (3 Bft) SW 232 0 min 0 W/m 5,6 C 1,8 C 20,9 km/h (4 Bft)
21.03.2017 06:21 6,3 C 95 % 1000,9 hPa 0,0 l/m 12,5 km/h (2 Bft) W-SW 238 0 min 0 W/m 5,6 C 2,0 C 19,3 km/h (3 Bft)
21.03.2017 06:24 6,3 C 95 % 1000,9 hPa 0,0 l/m 13,5 km/h (3 Bft) W-SW 240 0 min 0 W/m 5,6 C 1,4 C 19,3 km/h (3 Bft)
21.03.2017 06:27 6,3 C 95 % 1001,0 hPa 0,0 l/m 11,7 km/h (2 Bft) SW 229 0 min 0 W/m 5,6 C 2,4 C 16,1 km/h (3 Bft)
21.03.2017 06:30 6,3 C 95 % 1001,0 hPa 0,0 l/m 12,4 km/h (2 Bft) S-SW 192 0 min 0 W/m 5,6 C 2,0 C 19,3 km/h (3 Bft)
21.03.2017 06:33 6,3 C 96 % 1001,0 hPa 0,0 l/m 13,0 km/h (3 Bft) W-SW 237 0 min 5 W/m 5,7 C 1,7 C 19,3 km/h (3 Bft)
21.03.2017 06:36 6,2 C 96 % 1001,0 hPa 0,0 l/m 11,5 km/h (2 Bft) S-SW 208 0 min 5 W/m 5,6 C 2,4 C 24,1 km/h (4 Bft)
21.03.2017 06:39 6,2 C 96 % 1001,0 hPa 0,0 l/m 14,0 km/h (3 Bft) S-SW 192 0 min 5 W/m 5,6 C 1,0 C 20,9 km/h (4 Bft)
21.03.2017 06:42 6,2 C 96 % 1000,9 hPa 0,0 l/m 11,6 km/h (2 Bft) S-SW 207 0 min 7 W/m 5,6 C 2,4 C 17,7 km/h (3 Bft)
21.03.2017 06:45 6,2 C 96 % 1001,0 hPa 0,0 l/m 10,1 km/h (2 Bft) SW 218 0 min 9 W/m 5,6 C 3,3 C 14,5 km/h (3 Bft)
21.03.2017 06:48 6,1 C 96 % 1001,0 hPa 0,0 l/m 9,7 km/h (2 Bft) S 182 0 min 9 W/m 5,5 C 3,5 C 12,9 km/h (3 Bft)
21.03.2017 06:51 6,1 C 95 % 1001,0 hPa 0,0 l/m 10,2 km/h (2 Bft) SW 215 0 min 11 W/m 5,4 C 3,2 C 17,7 km/h (3 Bft)
21.03.2017 06:54 6,1 C 96 % 1001,0 hPa 0,0 l/m 12,0 km/h (2 Bft) S-SW 195 0 min 16 W/m 5,5 C 2,0 C 16,1 km/h (3 Bft)
21.03.2017 06:57 6,1 C 96 % 1000,9 hPa 0,0 l/m 12,1 km/h (2 Bft) SW 228 0 min 12 W/m 5,5 C 2,0 C 19,3 km/h (3 Bft)
21.03.2017 07:00 6,2 C 96 % 1001,0 hPa 0,0 l/m 13,5 km/h (3 Bft) S-SW 213 0 min 16 W/m 5,6 C 1,3 C 24,1 km/h (4 Bft)
21.03.2017 07:03 6,2 C 96 % 1001,0 hPa 0,0 l/m 11,2 km/h (2 Bft) S 173 0 min 14 W/m 5,6 C 2,6 C 20,9 km/h (4 Bft)
21.03.2017 07:06 6,2 C 96 % 1001,1 hPa 0,0 l/m 13,9 km/h (3 Bft) SW 234 0 min 14 W/m 5,6 C 1,1 C 20,9 km/h (4 Bft)
21.03.2017 07:09 6,2 C 96 % 1001,1 hPa 0,0 l/m 11,8 km/h (2 Bft) W-SW 241 0 min 14 W/m 5,6 C 2,3 C 16,1 km/h (3 Bft)
21.03.2017 07:12 6,2 C 96 % 1001,1 hPa 0,0 l/m 11,6 km/h (2 Bft) SW 219 0 min 16 W/m 5,6 C 2,4 C 17,7 km/h (3 Bft)
21.03.2017 07:15 6,2 C 96 % 1001,2 hPa 0,0 l/m 13,3 km/h (3 Bft) S 187 0 min 14 W/m 5,6 C 1,4 C 20,9 km/h (4 Bft)
21.03.2017 07:18 6,2 C 96 % 1001,1 hPa 0,0 l/m 13,0 km/h (3 Bft) S-SW 205 0 min 19 W/m 5,6 C 1,6 C 19,3 km/h (3 Bft)
21.03.2017 07:21 6,3 C 96 % 1001,2 hPa 0,0 l/m 12,9 km/h (3 Bft) S-SW 202 0 min 46 W/m 5,7 C 1,7 C 19,3 km/h (3 Bft)
21.03.2017 07:24 6,3 C 96 % 1001,1 hPa 0,0 l/m 15,7 km/h (3 Bft) SW 225 0 min 49 W/m 5,7 C 0,3 C 25,7 km/h (4 Bft)
21.03.2017 07:27 6,4 C 96 % 1001,0 hPa 0,0 l/m 13,7 km/h (3 Bft) SW 234 0 min 35 W/m 5,8 C 1,4 C 19,3 km/h (3 Bft)
21.03.2017 07:30 6,4 C 96 % 1001,0 hPa 0,0 l/m 16,5 km/h (3 Bft) S-SW 207 0 min 30 W/m 5,8 C 0,1 C 27,4 km/h (5 Bft)
21.03.2017 07:33 6,5 C 96 % 1001,1 hPa 0,0 l/m 15,8 km/h (3 Bft) W 265 0 min 32 W/m 5,9 C 0,5 C 24,1 km/h (4 Bft)
21.03.2017 07:36 6,6 C 96 % 1001,0 hPa 0,0 l/m 13,1 km/h (3 Bft) SW 228 0 min 69 W/m 6,0 C 2,0 C 20,9 km/h (4 Bft)
21.03.2017 07:39 6,6 C 96 % 1001,0 hPa 0,0 l/m 17,0 km/h (3 Bft) S-SW 209 0 min 28 W/m 6,0 C 0,1 C 30,6 km/h (5 Bft)
21.03.2017 07:42 6,7 C 97 % 1001,0 hPa 0,0 l/m 14,8 km/h (3 Bft) S-SW 205 0 min 25 W/m 6,3 C 1,2 C 20,9 km/h (4 Bft)
21.03.2017 07:45 6,6 C 96 % 1001,2 hPa 0,0 l/m 16,8 km/h (3 Bft) W-SW 242 0 min 28 W/m 6,0 C 0,2 C 25,7 km/h (4 Bft)
21.03.2017 07:48 6,6 C 96 % 1001,1 hPa 0,0 l/m 19,4 km/h (3 Bft) SW 216 0 min 30 W/m 6,0 C -0,9 C 29,0 km/h (5 Bft)
21.03.2017 07:51 6,6 C 96 % 1001,1 hPa 0,0 l/m 16,5 km/h (3 Bft) S-SW 205 0 min 32 W/m 6,0 C 0,3 C 24,1 km/h (4 Bft)
21.03.2017 07:54 6,6 C 96 % 1001,1 hPa 0,0 l/m 15,8 km/h (3 Bft) S-SW 211 0 min 40 W/m 6,0 C 0,6 C 24,1 km/h (4 Bft)
21.03.2017 07:57 6,6 C 96 % 1001,1 hPa 0,0 l/m 15,2 km/h (3 Bft) SW 220 0 min 58 W/m 6,0 C 0,9 C 24,1 km/h (4 Bft)
21.03.2017 08:00 6,7 C 96 % 1001,1 hPa 0,0 l/m 15,6 km/h (3 Bft) SW 220 0 min 60 W/m 6,1 C 0,9 C 25,7 km/h (4 Bft)
21.03.2017 08:03 6,7 C 96 % 1001,0 hPa 0,0 l/m 14,6 km/h (3 Bft) SW 233 0 min 28 W/m 6,1 C 1,3 C 20,9 km/h (4 Bft)
21.03.2017 08:06 6,7 C 96 % 1001,1 hPa 0,0 l/m 14,8 km/h (3 Bft) SW 231 0 min 40 W/m 6,1 C 1,2 C 22,5 km/h (4 Bft)
21.03.2017 08:09 6,8 C 96 % 1001,0 hPa 0,0 l/m 14,4 km/h (3 Bft) SW 219 0 min 37 W/m 6,2 C 1,5 C 22,5 km/h (4 Bft)
21.03.2017 08:12 6,8 C 96 % 1001,1 hPa 0,0 l/m 19,1 km/h (3 Bft) SW 230 0 min 97 W/m 6,2 C -0,5 C 25,7 km/h (4 Bft)
21.03.2017 08:15 6,9 C 96 % 1001,1 hPa 0,0 l/m 17,1 km/h (3 Bft) W-SW 242 0 min 76 W/m 6,3 C 0,4 C 27,4 km/h (5 Bft)
21.03.2017 08:18 6,9 C 96 % 1001,2 hPa 0,0 l/m 17,6 km/h (3 Bft) W-SW 241 0 min 60 W/m 6,3 C 0,2 C 25,7 km/h (4 Bft)
21.03.2017 08:21 7,0 C 96 % 1001,2 hPa 0,0 l/m 14,8 km/h (3 Bft) SW 223 0 min 53 W/m 6,4 C 1,6 C 22,5 km/h (4 Bft)
21.03.2017 08:24 7,1 C 96 % 1001,2 hPa 0,0 l/m 17,4 km/h (3 Bft) S-SW 209 0 min 63 W/m 6,5 C 0,6 C 29,0 km/h (5 Bft)
21.03.2017 08:27 7,1 C 96 % 1001,2 hPa 0,0 l/m 13,9 km/h (3 Bft) W-SW 240 0 min 53 W/m 6,5 C 2,2 C 22,5 km/h (4 Bft)
21.03.2017 08:30 7,2 C 96 % 1001,2 hPa 0,0 l/m 18,0 km/h (3 Bft) SW 219 0 min 47 W/m 6,6 C 0,4 C 27,4 km/h (5 Bft)
21.03.2017 08:33 7,2 C 96 % 1001,4 hPa 0,0 l/m 16,9 km/h (3 Bft) W-SW 246 0 min 69 W/m 6,6 C 0,9 C 25,7 km/h (4 Bft)
21.03.2017 08:36 7,3 C 96 % 1001,3 hPa 0,0 l/m 13,7 km/h (3 Bft) S-SW 209 0 min 69 W/m 6,7 C 2,5 C 19,3 km/h (3 Bft)
21.03.2017 08:39 7,3 C 96 % 1001,4 hPa 0,0 l/m 16,7 km/h (3 Bft) S-SW 207 0 min 44 W/m 6,7 C 1,1 C 24,1 km/h (4 Bft)
21.03.2017 08:42 7,3 C 96 % 1001,3 hPa 0,0 l/m 15,1 km/h (3 Bft) SW 226 0 min 81 W/m 6,7 C 1,8 C 25,7 km/h (4 Bft)
21.03.2017 08:45 7,4 C 96 % 1001,4 hPa 0,0 l/m 17,0 km/h (3 Bft) SW 217 0 min 74 W/m 6,8 C 1,1 C 25,7 km/h (4 Bft)
21.03.2017 08:48 7,4 C 96 % 1001,4 hPa 0,0 l/m 15,8 km/h (3 Bft) SW 233 0 min 58 W/m 6,8 C 1,6 C 22,5 km/h (4 Bft)
21.03.2017 08:51 7,4 C 96 % 1001,4 hPa 0,0 l/m 18,8 km/h (3 Bft) SW 236 0 min 56 W/m 6,8 C 0,4 C 32,2 km/h (5 Bft)
21.03.2017 08:54 7,4 C 95 % 1001,4 hPa 0,0 l/m 22,4 km/h (4 Bft) W-SW 251 0 min 44 W/m 6,7 C -0,9 C 32,2 km/h (5 Bft)
21.03.2017 08:57 7,5 C 96 % 1001,4 hPa 0,0 l/m 15,2 km/h (3 Bft) S-SW 211 0 min 93 W/m 6,9 C 2,0 C 20,9 km/h (4 Bft)
21.03.2017 09:00 7,6 C 95 % 1001,4 hPa 0,0 l/m 18,4 km/h (3 Bft) S-SW 204 0 min 60 W/m 6,9 C 0,8 C 29,0 km/h (5 Bft)
21.03.2017 09:03 7,6 C 95 % 1001,4 hPa 0,0 l/m 17,6 km/h (3 Bft) SW 225 0 min 62 W/m 6,9 C 1,1 C 25,7 km/h (4 Bft)
21.03.2017 09:06 7,7 C 95 % 1001,4 hPa 0,0 l/m 19,1 km/h (3 Bft) S 182 0 min 65 W/m 7,0 C 0,6 C 32,2 km/h (5 Bft)
21.03.2017 09:09 7,7 C 95 % 1001,4 hPa 0,0 l/m 18,2 km/h (3 Bft) SW 234 0 min 91 W/m 7,0 C 1,0 C 30,6 km/h (5 Bft)
21.03.2017 09:12 7,8 C 95 % 1001,5 hPa 0,0 l/m 18,5 km/h (3 Bft) S-SW 205 0 min 72 W/m 7,0 C 1,0 C 29,0 km/h (5 Bft)
21.03.2017 09:15 7,9 C 95 % 1001,5 hPa 0,0 l/m 20,9 km/h (4 Bft) SW 225 0 min 102 W/m 7,1 C 0,3 C 32,2 km/h (5 Bft)
21.03.2017 09:18 8,0 C 95 % 1001,6 hPa 0,0 l/m 18,1 km/h (3 Bft) SW 224 0 min 109 W/m 7,2 C 1,4 C 25,7 km/h (4 Bft)
21.03.2017 09:21 8,2 C 94 % 1001,6 hPa 0,0 l/m 18,4 km/h (3 Bft) W-SW 255 0 min 97 W/m 7,3 C 1,5 C 27,4 km/h (5 Bft)
21.03.2017 09:24 8,2 C 94 % 1001,7 hPa 0,0 l/m 23,1 km/h (4 Bft) S-SW 202 0 min 70 W/m 7,3 C -0,1 C 33,8 km/h (5 Bft)
21.03.2017 09:27 8,2 C 93 % 1001,7 hPa 0,0 l/m 24,7 km/h (4 Bft) SW 220 0 min 163 W/m 7,1 C -0,5 C 37,0 km/h (5 Bft)
21.03.2017 09:30 8,3 C 94 % 1001,8 hPa 0,0 l/m 19,6 km/h (3 Bft) S-SW 210 0 min 162 W/m 7,4 C 1,2 C 27,4 km/h (5 Bft)
21.03.2017 09:33 8,4 C 92 % 1001,7 hPa 0,0 l/m 21,5 km/h (4 Bft) S 177 0 min 135 W/m 7,2 C 0,7 C 30,6 km/h (5 Bft)
21.03.2017 09:36 8,3 C 92 % 1001,8 hPa 0,0 l/m 20,6 km/h (4 Bft) SW 235 0 min 114 W/m 7,1 C 0,9 C 30,6 km/h (5 Bft)
21.03.2017 09:39 8,3 C 92 % 1001,8 hPa 0,0 l/m 22,1 km/h (4 Bft) W 267 0 min 174 W/m 7,1 C 0,4 C 33,8 km/h (5 Bft)
21.03.2017 09:42 8,5 C 93 % 1001,9 hPa 0,0 l/m 20,2 km/h (4 Bft) SW 236 0 min 149 W/m 7,4 C 1,3 C 27,4 km/h (5 Bft)
21.03.2017 09:45 8,6 C 92 % 1001,9 hPa 0,0 l/m 18,1 km/h (3 Bft) W-SW 254 0 min 171 W/m 7,4 C 2,2 C 29,0 km/h (5 Bft)
21.03.2017 09:48 8,6 C 91 % 1002,0 hPa 0,0 l/m 19,1 km/h (3 Bft) W-SW 246 0 min 134 W/m 7,2 C 1,8 C 29,0 km/h (5 Bft)
21.03.2017 09:51 8,4 C 91 % 1002,1 hPa 0,0 l/m 19,3 km/h (3 Bft) SW 235 0 min 93 W/m 7,0 C 1,5 C 30,6 km/h (5 Bft)
21.03.2017 09:54 8,4 C 91 % 1002,1 hPa 0,0 l/m 19,6 km/h (3 Bft) W-SW 248 0 min 81 W/m 7,0 C 1,4 C 32,2 km/h (5 Bft)
21.03.2017 09:57 8,3 C 90 % 1002,1 hPa 0,0 l/m 21,2 km/h (4 Bft) W-SW 244 0 min 128 W/m 6,8 C 0,7 C 33,8 km/h (5 Bft)
21.03.2017 10:00 8,2 C 90 % 1002,1 hPa 0,0 l/m 23,9 km/h (4 Bft) SW 217 0 min 241 W/m 6,7 C -0,3 C 33,8 km/h (5 Bft)
21.03.2017 10:03 8,3 C 91 % 1002,2 hPa 0,0 l/m 19,2 km/h (3 Bft) SW 225 0 min 162 W/m 6,9 C 1,4 C 29,0 km/h (5 Bft)
21.03.2017 10:06 8,4 C 90 % 1002,2 hPa 0,0 l/m 19,8 km/h (3 Bft) SW 217 0 min 172 W/m 6,9 C 1,3 C 29,0 km/h (5 Bft)
21.03.2017 10:09 8,4 C 90 % 1002,2 hPa 0,0 l/m 19,9 km/h (4 Bft) SW 214 0 min 62 W/m 6,9 C 1,3 C 30,6 km/h (5 Bft)
21.03.2017 10:12 8,3 C 90 % 1002,1 hPa 0,0 l/m 20,5 km/h (4 Bft) S-SW 202 0 min 42 W/m 6,8 C 0,9 C 29,0 km/h (5 Bft)
21.03.2017 10:15 8,2 C 90 % 1002,2 hPa 0,0 l/m 19,3 km/h (3 Bft) W-SW 253 0 min 102 W/m 6,7 C 1,2 C 30,6 km/h (5 Bft)
21.03.2017 10:18 8,2 C 90 % 1002,2 hPa 0,0 l/m 16,7 km/h (3 Bft) S-SW 213 0 min 207 W/m 6,7 C 2,2 C 24,1 km/h (4 Bft)
21.03.2017 10:21 8,4 C 91 % 1002,2 hPa 0,0 l/m 18,8 km/h (3 Bft) SW 233 0 min 181 W/m 7,0 C 1,6 C 25,7 km/h (4 Bft)
21.03.2017 10:24 8,6 C 91 % 1002,3 hPa 0,0 l/m 17,5 km/h (3 Bft) SW 223 0 min 181 W/m 7,2 C 2,4 C 30,6 km/h (5 Bft)
21.03.2017 10:27 8,7 C 90 % 1002,2 hPa 0,0 l/m 20,2 km/h (4 Bft) S-SW 209 0 min 111 W/m 7,2 C 1,5 C 32,2 km/h (5 Bft)
21.03.2017 10:30 8,7 C 89 % 1002,2 hPa 0,0 l/m 17,1 km/h (3 Bft) W-SW 238 0 min 179 W/m 7,0 C 2,7 C 27,4 km/h (5 Bft)
21.03.2017 10:33 8,7 C 88 % 1002,3 hPa 0,0 l/m 19,2 km/h (3 Bft) SW 217 0 min 193 W/m 6,8 C 1,9 C 30,6 km/h (5 Bft)
21.03.2017 10:36 8,7 C 88 % 1002,2 hPa 0,0 l/m 19,4 km/h (3 Bft) W-SW 250 0 min 220 W/m 6,8 C 1,8 C 30,6 km/h (5 Bft)
21.03.2017 10:39 8,8 C 87 % 1002,2 hPa 0,0 l/m 20,7 km/h (4 Bft) SW 234 0 min 206 W/m 6,8 C 1,5 C 30,6 km/h (5 Bft)
21.03.2017 10:42 9,1 C 87 % 1002,2 hPa 0,0 l/m 18,4 km/h (3 Bft) W 263 0 min 142 W/m 7,1 C 2,7 C 29,0 km/h (5 Bft)
21.03.2017 10:45 9,2 C 86 % 1002,3 hPa 0,0 l/m 18,0 km/h (3 Bft) SW 218 0 min 100 W/m 7,0 C 3,0 C 25,7 km/h (4 Bft)
21.03.2017 10:48 9,2 C 86 % 1002,3 hPa 0,0 l/m 21,6 km/h (4 Bft) SW 225 0 min 202 W/m 7,0 C 1,7 C 32,2 km/h (5 Bft)
21.03.2017 10:51 9,2 C 85 % 1002,3 hPa 0,0 l/m 21,5 km/h (4 Bft) S-SW 209 0 min 169 W/m 6,8 C 1,8 C 30,6 km/h (5 Bft)
21.03.2017 10:54 9,1 C 85 % 1002,4 hPa 0,0 l/m 18,3 km/h (3 Bft) W-SW 241 0 min 109 W/m 6,7 C 2,7 C 27,4 km/h (5 Bft)
21.03.2017 10:57 9,1 C 85 % 1002,5 hPa 0,0 l/m 19,3 km/h (3 Bft) W-SW 249 0 min 120 W/m 6,7 C 2,4 C 32,2 km/h (5 Bft)
21.03.2017 11:00 9,3 C 85 % 1002,4 hPa 0,0 l/m 20,9 km/h (4 Bft) SW 234 0 min 171 W/m 6,9 C 2,1 C 33,8 km/h (5 Bft)
21.03.2017 11:03 9,3 C 85 % 1002,4 hPa 0,0 l/m 20,7 km/h (4 Bft) SW 235 3 min 380 W/m 6,9 C 2,2 C 33,8 km/h (5 Bft)
21.03.2017 11:06 9,5 C 84 % 1002,4 hPa 0,0 l/m 20,4 km/h (4 Bft) W-SW 241 3 min 330 W/m 6,9 C 2,5 C 30,6 km/h (5 Bft)
21.03.2017 11:09 9,7 C 84 % 1002,4 hPa 0,0 l/m 18,3 km/h (3 Bft) SW 228 3 min 316 W/m 7,1 C 3,5 C 27,4 km/h (5 Bft)
21.03.2017 11:12 9,8 C 82 % 1002,4 hPa 0,0 l/m 19,3 km/h (3 Bft) SW 223 0 min 267 W/m 6,9 C 3,3 C 29,0 km/h (5 Bft)
21.03.2017 11:15 9,7 C 82 % 1002,9 hPa 0,0 l/m 20,6 km/h (4 Bft) W 277 0 min 44 W/m 6,8 C 2,7 C 35,4 km/h (5 Bft)
21.03.2017 11:18 9,0 C 80 % 1002,9 hPa 0,0 l/m 19,4 km/h (3 Bft) SW 236 0 min 35 W/m 5,7 C 2,2 C 37,0 km/h (5 Bft)
21.03.2017 11:21 8,2 C 80 % 1002,8 hPa 0,2 l/m 20,3 km/h (4 Bft) SW 236 0 min 39 W/m 5,0 C 0,9 C 32,2 km/h (5 Bft)
21.03.2017 11:24 7,4 C 83 % 1002,8 hPa 0,0 l/m 15,4 km/h (3 Bft) S-SW 211 0 min 79 W/m 4,7 C 1,8 C 25,7 km/h (4 Bft)
21.03.2017 11:27 7,1 C 85 % 1002,8 hPa 0,0 l/m 15,6 km/h (3 Bft) W-SW 239 0 min 107 W/m 4,8 C 1,3 C 27,4 km/h (5 Bft)
21.03.2017 11:30 7,0 C 87 % 1002,9 hPa 0,0 l/m 17,9 km/h (3 Bft) W-NW 283 0 min 49 W/m 5,0 C 0,2 C 25,7 km/h (4 Bft)
21.03.2017 11:33 7,0 C 88 % 1003,0 hPa 0,2 l/m 17,4 km/h (3 Bft) W 261 0 min 28 W/m 5,2 C 0,4 C 40,2 km/h (6 Bft)
21.03.2017 11:36 6,9 C 89 % 1003,1 hPa 0,0 l/m 16,3 km/h (3 Bft) SW 217 0 min 26 W/m 5,2 C 0,8 C 35,4 km/h (5 Bft)
21.03.2017 11:39 6,9 C 89 % 1003,1 hPa 0,0 l/m 18,0 km/h (3 Bft) SW 231 0 min 40 W/m 5,2 C 0,1 C 30,6 km/h (5 Bft)
21.03.2017 11:42 7,0 C 90 % 1003,1 hPa 0,0 l/m 15,9 km/h (3 Bft) W 270 0 min 51 W/m 5,5 C 1,1 C 27,4 km/h (5 Bft)
21.03.2017 11:45 7,0 C 90 % 1003,1 hPa 0,0 l/m 12,2 km/h (2 Bft) W 263 0 min 98 W/m 5,5 C 2,9 C 30,6 km/h (5 Bft)
21.03.2017 11:48 7,1 C 91 % 1003,1 hPa 0,0 l/m 15,5 km/h (3 Bft) W 272 0 min 109 W/m 5,7 C 1,4 C 32,2 km/h (5 Bft)
21.03.2017 11:51 7,2 C 91 % 1003,1 hPa 0,2 l/m 16,5 km/h (3 Bft) SW 232 0 min 137 W/m 5,8 C 1,1 C 29,0 km/h (5 Bft)
21.03.2017 11:54 7,3 C 91 % 1003,3 hPa 0,0 l/m 17,3 km/h (3 Bft) W-SW 240 0 min 113 W/m 5,9 C 0,8 C 30,6 km/h (5 Bft)
21.03.2017 11:57 7,4 C 90 % 1003,3 hPa 0,0 l/m 15,5 km/h (3 Bft) W-SW 237 0 min 218 W/m 5,9 C 1,8 C 25,7 km/h (4 Bft)
21.03.2017 12:00 7,6 C 91 % 1003,3 hPa 0,0 l/m 15,0 km/h (3 Bft) SW 230 0 min 174 W/m 6,2 C 2,2 C 32,2 km/h (5 Bft)
21.03.2017 12:03 7,7 C 90 % 1003,3 hPa 0,0 l/m 20,6 km/h (4 Bft) W-SW 257 0 min 229 W/m 6,2 C 0,1 C 33,8 km/h (5 Bft)
21.03.2017 12:06 7,9 C 90 % 1003,3 hPa 0,0 l/m 18,7 km/h (3 Bft) W 269 3 min 482 W/m 6,4 C 1,1 C 29,0 km/h (5 Bft)
21.03.2017 12:09 8,3 C 90 % 1003,3 hPa 0,0 l/m 16,3 km/h (3 Bft) W 278 3 min 427 W/m 6,8 C 2,5 C 25,7 km/h (4 Bft)
21.03.2017 12:12 8,4 C 86 % 1003,2 hPa 0,0 l/m 24,4 km/h (4 Bft) W 281 3 min 473 W/m 6,2 C -0,2 C 37,0 km/h (5 Bft)
21.03.2017 12:15 8,7 C 86 % 1003,1 hPa 0,0 l/m 17,3 km/h (3 Bft) W 267 3 min 448 W/m 6,5 C 2,6 C 35,4 km/h (5 Bft)
21.03.2017 12:18 8,8 C 85 % 1003,2 hPa 0,0 l/m 22,0 km/h (4 Bft) W-SW 249 3 min 462 W/m 6,4 C 1,1 C 37,0 km/h (5 Bft)
21.03.2017 12:21 8,8 C 85 % 1003,3 hPa 0,0 l/m 19,7 km/h (3 Bft) W 264 3 min 492 W/m 6,4 C 1,8 C 30,6 km/h (5 Bft)
21.03.2017 12:24 8,9 C 84 % 1003,2 hPa 0,0 l/m 23,2 km/h (4 Bft) SW 225 3 min 519 W/m 6,3 C 0,9 C 43,5 km/h (6 Bft)
21.03.2017 12:27 8,9 C 83 % 1003,3 hPa 0,0 l/m 24,7 km/h (4 Bft) W-SW 254 3 min 550 W/m 6,2 C 0,4 C 37,0 km/h (5 Bft)
21.03.2017 12:30 9,0 C 83 % 1003,4 hPa 0,0 l/m 20,2 km/h (4 Bft) W 262 3 min 570 W/m 6,3 C 1,9 C 35,4 km/h (5 Bft)
21.03.2017 12:33 9,1 C 82 % 1003,2 hPa 0,0 l/m 23,1 km/h (4 Bft) W 262 3 min 594 W/m 6,2 C 1,1 C 37,0 km/h (5 Bft)
21.03.2017 12:36 9,1 C 82 % 1003,3 hPa 0,0 l/m 23,4 km/h (4 Bft) W-NW 287 3 min 599 W/m 6,2 C 1,1 C 40,2 km/h (6 Bft)
21.03.2017 12:39 9,1 C 79 % 1003,5 hPa 0,0 l/m 22,6 km/h (4 Bft) W-NW 284 3 min 610 W/m 5,7 C 1,3 C 35,4 km/h (5 Bft)
21.03.2017 12:42 9,1 C 79 % 1003,4 hPa 0,0 l/m 24,5 km/h (4 Bft) W-SW 253 3 min 608 W/m 5,7 C 0,7 C 38,6 km/h (6 Bft)
21.03.2017 12:45 9,0 C 76 % 1003,5 hPa 0,0 l/m 27,5 km/h (5 Bft) W 277 3 min 603 W/m 5,0 C -0,2 C 46,7 km/h (6 Bft)
21.03.2017 12:48 9,1 C 78 % 1003,5 hPa 0,0 l/m 24,0 km/h (4 Bft) W 262 3 min 603 W/m 5,5 C 0,9 C 43,5 km/h (6 Bft)
21.03.2017 12:51 9,2 C 76 % 1003,6 hPa 0,0 l/m 23,4 km/h (4 Bft) NW 313 3 min 606 W/m 5,2 C 1,2 C 38,6 km/h (6 Bft)
21.03.2017 12:54 9,1 C 77 % 1003,8 hPa 0,0 l/m 25,6 km/h (4 Bft) W 262 3 min 603 W/m 5,3 C 0,5 C 46,7 km/h (6 Bft)
21.03.2017 12:57 9,1 C 77 % 1003,8 hPa 0,0 l/m 23,1 km/h (4 Bft) NW 313 3 min 585 W/m 5,3 C 1,1 C 41,8 km/h (6 Bft)
21.03.2017 13:00 9,2 C 79 % 1003,8 hPa 0,0 l/m 20,2 km/h (4 Bft) SW 223 3 min 566 W/m 5,8 C 2,2 C 35,4 km/h (5 Bft)
21.03.2017 13:03 9,2 C 78 % 1003,7 hPa 0,0 l/m 20,8 km/h (4 Bft) W 278 3 min 612 W/m 5,6 C 2,0 C 33,8 km/h (5 Bft)
21.03.2017 13:06 9,3 C 79 % 1003,8 hPa 0,0 l/m 21,4 km/h (4 Bft) NW 317 3 min 621 W/m 5,8 C 1,9 C 35,4 km/h (5 Bft)
21.03.2017 13:09 9,3 C 79 % 1003,9 hPa 0,0 l/m 28,7 km/h (5 Bft) W 271 3 min 596 W/m 5,8 C -0,0 C 43,5 km/h (6 Bft)
21.03.2017 13:12 9,2 C 78 % 1004,0 hPa 0,0 l/m 24,0 km/h (4 Bft) SW 232 3 min 592 W/m 5,6 C 1,0 C 37,0 km/h (5 Bft)
21.03.2017 13:15 9,2 C 78 % 1003,9 hPa 0,0 l/m 24,9 km/h (4 Bft) W 273 3 min 592 W/m 5,6 C 0,8 C 38,6 km/h (6 Bft)
21.03.2017 13:18 9,3 C 80 % 1004,0 hPa 0,0 l/m 22,1 km/h (4 Bft) W-SW 246 3 min 589 W/m 6,0 C 1,7 C 35,4 km/h (5 Bft)
21.03.2017 13:21 9,2 C 79 % 1004,1 hPa 0,0 l/m 20,6 km/h (4 Bft) SW 219 0 min 216 W/m 5,8 C 2,1 C 38,6 km/h (6 Bft)
21.03.2017 13:24 8,9 C 78 % 1004,1 hPa 0,0 l/m 19,1 km/h (3 Bft) W 261 3 min 582 W/m 5,3 C 2,2 C 30,6 km/h (5 Bft)
21.03.2017 13:27 8,9 C 78 % 1004,1 hPa 0,0 l/m 16,6 km/h (3 Bft) SW 234 3 min 598 W/m 5,3 C 3,1 C 35,4 km/h (5 Bft)
21.03.2017 13:30 8,9 C 75 % 1004,1 hPa 0,0 l/m 22,4 km/h (4 Bft) W-SW 248 3 min 582 W/m 4,7 C 1,1 C 35,4 km/h (5 Bft)
21.03.2017 13:33 8,8 C 74 % 1004,2 hPa 0,0 l/m 25,5 km/h (4 Bft) W-SW 250 3 min 524 W/m 4,4 C 0,1 C 40,2 km/h (6 Bft)
21.03.2017 13:36 8,9 C 75 % 1004,2 hPa 0,0 l/m 21,2 km/h (4 Bft) W 265 3 min 589 W/m 4,7 C 1,5 C 43,5 km/h (6 Bft)
21.03.2017 13:39 8,9 C 75 % 1004,3 hPa 0,0 l/m 27,8 km/h (5 Bft) W-SW 248 3 min 584 W/m 4,7 C -0,4 C 41,8 km/h (6 Bft)
21.03.2017 13:42 8,8 C 76 % 1004,4 hPa 0,0 l/m 23,6 km/h (4 Bft) W 264 3 min 584 W/m 4,8 C 0,6 C 38,6 km/h (6 Bft)
21.03.2017 13:45 8,7 C 76 % 1004,3 hPa 0,0 l/m 24,1 km/h (4 Bft) W 275 3 min 580 W/m 4,7 C 0,3 C 43,5 km/h (6 Bft)
21.03.2017 13:48 8,7 C 77 % 1004,4 hPa 0,0 l/m 24,1 km/h (4 Bft) W 267 3 min 573 W/m 4,9 C 0,3 C 37,0 km/h (5 Bft)
21.03.2017 13:51 8,8 C 77 % 1004,4 hPa 0,0 l/m 24,8 km/h (4 Bft) W 275 3 min 570 W/m 5,0 C 0,3 C 49,9 km/h (7 Bft)
21.03.2017 13:54 9,0 C 77 % 1004,5 hPa 0,0 l/m 19,5 km/h (3 Bft) W-NW 287 3 min 564 W/m 5,2 C 2,2 C 29,0 km/h (5 Bft)
21.03.2017 13:57 9,0 C 76 % 1004,5 hPa 0,0 l/m 23,2 km/h (4 Bft) W 266 3 min 559 W/m 5,0 C 1,0 C 41,8 km/h (6 Bft)
21.03.2017 14:00 9,2 C 78 % 1004,6 hPa 0,0 l/m 21,2 km/h (4 Bft) N 10 3 min 559 W/m 5,6 C 1,9 C 37,0 km/h (5 Bft)
21.03.2017 14:03 9,1 C 76 % 1004,6 hPa 0,0 l/m 23,2 km/h (4 Bft) SW 236 3 min 550 W/m 5,1 C 1,1 C 35,4 km/h (5 Bft)
21.03.2017 14:06 8,9 C 76 % 1004,6 hPa 0,0 l/m 22,7 km/h (4 Bft) W 272 3 min 550 W/m 4,9 C 1,0 C 37,0 km/h (5 Bft)
21.03.2017 14:09 8,8 C 78 % 1004,7 hPa 0,0 l/m 23,4 km/h (4 Bft) W-NW 287 3 min 557 W/m 5,2 C 0,7 C 40,2 km/h (6 Bft)
21.03.2017 14:12 8,9 C 78 % 1004,7 hPa 0,0 l/m 24,7 km/h (4 Bft) W-SW 248 3 min 543 W/m 5,3 C 0,4 C 45,1 km/h (6 Bft)
21.03.2017 14:15 8,9 C 78 % 1004,7 hPa 0,0 l/m 17,4 km/h (3 Bft) W 276 3 min 585 W/m 5,3 C 2,8 C 32,2 km/h (5 Bft)
21.03.2017 14:18 9,0 C 77 % 1004,7 hPa 0,0 l/m 20,6 km/h (4 Bft) W 273 3 min 585 W/m 5,2 C 1,8 C 46,7 km/h (6 Bft)
21.03.2017 14:21 9,1 C 78 % 1004,8 hPa 0,0 l/m 19,7 km/h (3 Bft) W 266 3 min 621 W/m 5,5 C 2,2 C 32,2 km/h (5 Bft)
21.03.2017 14:24 9,1 C 76 % 1004,8 hPa 0,0 l/m 18,5 km/h (3 Bft) W 281 0 min 274 W/m 5,1 C 2,7 C 32,2 km/h (5 Bft)
21.03.2017 14:27 8,8 C 76 % 1004,9 hPa 0,0 l/m 18,5 km/h (3 Bft) W-SW 258 3 min 533 W/m 4,8 C 2,3 C 29,0 km/h (5 Bft)
21.03.2017 14:30 8,9 C 77 % 1004,9 hPa 0,0 l/m 20,7 km/h (4 Bft) W 271 3 min 526 W/m 5,1 C 1,6 C 35,4 km/h (5 Bft)
21.03.2017 14:33 9,1 C 76 % 1004,9 hPa 0,0 l/m 20,8 km/h (4 Bft) W 263 3 min 522 W/m 5,1 C 1,9 C 32,2 km/h (5 Bft)
21.03.2017 14:36 9,1 C 77 % 1004,9 hPa 0,0 l/m 13,6 km/h (3 Bft) S-SW 198 3 min 506 W/m 5,3 C 4,7 C 29,0 km/h (5 Bft)
21.03.2017 14:39 9,2 C 76 % 1004,9 hPa 0,0 l/m 18,6 km/h (3 Bft) W 271 3 min 496 W/m 5,2 C 2,7 C 32,2 km/h (5 Bft)
21.03.2017 14:42 9,2 C 77 % 1005,0 hPa 0,0 l/m 19,4 km/h (3 Bft) SW 232 3 min 492 W/m 5,4 C 2,5 C 33,8 km/h (5 Bft)
21.03.2017 14:45 9,0 C 76 % 1005,1 hPa 0,0 l/m 19,2 km/h (3 Bft) W-NW 302 3 min 494 W/m 5,0 C 2,3 C 30,6 km/h (5 Bft)
21.03.2017 14:48 9,1 C 77 % 1005,1 hPa 0,0 l/m 18,0 km/h (3 Bft) W-SW 258 3 min 469 W/m 5,3 C 2,8 C 35,4 km/h (5 Bft)
21.03.2017 14:51 9,0 C 78 % 1005,1 hPa 0,0 l/m 17,8 km/h (3 Bft) W 263 3 min 482 W/m 5,4 C 2,8 C 32,2 km/h (5 Bft)
21.03.2017 14:54 9,2 C 78 % 1005,1 hPa 0,0 l/m 14,8 km/h (3 Bft) W-SW 242 3 min 473 W/m 5,6 C 4,3 C 33,8 km/h (5 Bft)
21.03.2017 14:57 9,1 C 76 % 1005,2 hPa 0,0 l/m 22,0 km/h (4 Bft) W 263 3 min 464 W/m 5,1 C 1,5 C 33,8 km/h (5 Bft)
21.03.2017 15:00 9,0 C 76 % 1005,2 hPa 0,0 l/m 20,9 km/h (4 Bft) W-SW 246 3 min 468 W/m 5,0 C 1,7 C 33,8 km/h (5 Bft)
21.03.2017 15:03 8,8 C 76 % 1005,3 hPa 0,0 l/m 19,1 km/h (3 Bft) W-NW 292 3 min 457 W/m 4,8 C 2,1 C 35,4 km/h (5 Bft)
21.03.2017 15:06 8,9 C 76 % 1005,3 hPa 0,0 l/m 19,0 km/h (3 Bft) W 269 3 min 454 W/m 4,9 C 2,2 C 30,6 km/h (5 Bft)
21.03.2017 15:09 8,8 C 75 % 1005,4 hPa 0,0 l/m 18,6 km/h (3 Bft) S-SW 194 3 min 434 W/m 4,6 C 2,2 C 40,2 km/h (6 Bft)
21.03.2017 15:12 8,7 C 75 % 1005,4 hPa 0,0 l/m 23,8 km/h (4 Bft) W-NW 284 3 min 410 W/m 4,5 C 0,4 C 37,0 km/h (5 Bft)
21.03.2017 15:15 8,6 C 75 % 1005,5 hPa 0,0 l/m 18,2 km/h (3 Bft) W 267 3 min 445 W/m 4,4 C 2,1 C 33,8 km/h (5 Bft)
21.03.2017 15:18 8,4 C 75 % 1005,4 hPa 0,0 l/m 23,7 km/h (4 Bft) S-SW 206 3 min 427 W/m 4,2 C 0,0 C 41,8 km/h (6 Bft)
21.03.2017 15:21 8,4 C 75 % 1005,5 hPa 0,0 l/m 24,4 km/h (4 Bft) SW 218 3 min 392 W/m 4,2 C -0,2 C 40,2 km/h (6 Bft)
21.03.2017 15:24 8,3 C 76 % 1005,5 hPa 0,0 l/m 17,7 km/h (3 Bft) W-NW 292 3 min 371 W/m 4,3 C 1,9 C 32,2 km/h (5 Bft)
21.03.2017 15:27 8,4 C 75 % 1005,5 hPa 0,0 l/m 22,5 km/h (4 Bft) W 276 0 min 100 W/m 4,2 C 0,4 C 40,2 km/h (6 Bft)
21.03.2017 15:30 8,4 C 75 % 1005,6 hPa 0,0 l/m 23,5 km/h (4 Bft) SW 234 0 min 93 W/m 4,2 C 0,1 C 40,2 km/h (6 Bft)
21.03.2017 15:33 8,3 C 75 % 1005,6 hPa 0,0 l/m 22,3 km/h (4 Bft) W-SW 244 0 min 98 W/m 4,1 C 0,3 C 38,6 km/h (6 Bft)
21.03.2017 15:36 8,2 C 76 % 1005,6 hPa 0,0 l/m 22,0 km/h (4 Bft) SW 232 0 min 104 W/m 4,2 C 0,3 C 45,1 km/h (6 Bft)
21.03.2017 15:39 8,2 C 76 % 1005,6 hPa 0,0 l/m 19,7 km/h (3 Bft) W-SW 257 0 min 104 W/m 4,2 C 1,1 C 37,0 km/h (5 Bft)
21.03.2017 15:42 8,1 C 76 % 1005,7 hPa 0,0 l/m 20,8 km/h (4 Bft) W 259 0 min 111 W/m 4,1 C 0,6 C 37,0 km/h (5 Bft)
21.03.2017 15:45 8,1 C 76 % 1005,7 hPa 0,0 l/m 23,1 km/h (4 Bft) W 275 0 min 118 W/m 4,1 C -0,2 C 37,0 km/h (5 Bft)
21.03.2017 15:48 8,0 C 74 % 1005,7 hPa 0,0 l/m 22,8 km/h (4 Bft) W 262 0 min 105 W/m 3,7 C -0,2 C 41,8 km/h (6 Bft)
21.03.2017 15:51 8,0 C 73 % 1005,8 hPa 0,0 l/m 24,3 km/h (4 Bft) W 273 0 min 84 W/m 3,5 C -0,7 C 49,9 km/h (7 Bft)
21.03.2017 15:54 8,0 C 73 % 1005,8 hPa 0,0 l/m 18,0 km/h (3 Bft) SW 234 0 min 88 W/m 3,5 C 1,4 C 38,6 km/h (6 Bft)
21.03.2017 15:57 8,0 C 73 % 1005,9 hPa 0,0 l/m 21,9 km/h (4 Bft) SW 236 0 min 90 W/m 3,5 C 0,1 C 35,4 km/h (5 Bft)
21.03.2017 16:00 7,9 C 73 % 1005,9 hPa 0,0 l/m 26,1 km/h (4 Bft) W-SW 246 0 min 83 W/m 3,4 C -1,3 C 43,5 km/h (6 Bft)
21.03.2017 16:03 7,8 C 75 % 1006,0 hPa 0,0 l/m 17,5 km/h (3 Bft) W 276 0 min 93 W/m 3,7 C 1,4 C 32,2 km/h (5 Bft)
21.03.2017 16:06 7,8 C 74 % 1006,1 hPa 0,0 l/m 21,3 km/h (4 Bft) W 261 0 min 105 W/m 3,5 C -0,0 C 40,2 km/h (6 Bft)
21.03.2017 16:09 7,8 C 75 % 1006,0 hPa 0,0 l/m 18,5 km/h (3 Bft) W-SW 250 0 min 104 W/m 3,7 C 1,0 C 33,8 km/h (5 Bft)
21.03.2017 16:12 7,7 C 74 % 1006,1 hPa 0,0 l/m 19,3 km/h (3 Bft) W 272 0 min 107 W/m 3,4 C 0,6 C 30,6 km/h (5 Bft)
21.03.2017 16:15 7,7 C 73 % 1006,1 hPa 0,0 l/m 20,8 km/h (4 Bft) W-NW 286 0 min 104 W/m 3,2 C 0,0 C 33,8 km/h (5 Bft)
21.03.2017 16:18 7,6 C 73 % 1006,1 hPa 0,0 l/m 20,6 km/h (4 Bft) W 271 0 min 104 W/m 3,1 C -0,0 C 40,2 km/h (6 Bft)
21.03.2017 16:21 7,6 C 74 % 1006,2 hPa 0,0 l/m 18,5 km/h (3 Bft) W-NW 290 0 min 109 W/m 3,3 C 0,7 C 29,0 km/h (5 Bft)
21.03.2017 16:24 7,6 C 73 % 1006,2 hPa 0,0 l/m 21,7 km/h (4 Bft) SW 229 0 min 109 W/m 3,1 C -0,4 C 41,8 km/h (6 Bft)
21.03.2017 16:27 7,6 C 74 % 1006,2 hPa 0,0 l/m 17,4 km/h (3 Bft) W 261 0 min 120 W/m 3,3 C 1,2 C 29,0 km/h (5 Bft)
21.03.2017 16:30 7,6 C 75 % 1006,3 hPa 0,0 l/m 18,8 km/h (3 Bft) W 270 0 min 141 W/m 3,5 C 0,6 C 33,8 km/h (5 Bft)
21.03.2017 16:33 7,6 C 74 % 1006,3 hPa 0,0 l/m 20,5 km/h (4 Bft) W 271 0 min 102 W/m 3,3 C 0,0 C 30,6 km/h (5 Bft)
21.03.2017 16:36 7,6 C 75 % 1006,4 hPa 0,0 l/m 19,8 km/h (3 Bft) NW 305 0 min 102 W/m 3,5 C 0,3 C 33,8 km/h (5 Bft)
21.03.2017 16:39 7,6 C 73 % 1006,4 hPa 0,0 l/m 22,3 km/h (4 Bft) W 260 0 min 88 W/m 3,1 C -0,6 C 35,4 km/h (5 Bft)
21.03.2017 16:42 7,5 C 73 % 1006,5 hPa 0,0 l/m 19,4 km/h (3 Bft) W-SW 250 0 min 69 W/m 3,0 C 0,3 C 29,0 km/h (5 Bft)
21.03.2017 16:45 7,4 C 73 % 1006,5 hPa 0,0 l/m 25,1 km/h (4 Bft) SW 223 0 min 69 W/m 2,9 C -1,7 C 38,6 km/h (6 Bft)
21.03.2017 16:48 7,4 C 73 % 1006,5 hPa 0,0 l/m 22,8 km/h (4 Bft) W-SW 248 0 min 69 W/m 2,9 C -1,0 C 33,8 km/h (5 Bft)
21.03.2017 16:51 7,4 C 73 % 1006,6 hPa 0,0 l/m 21,0 km/h (4 Bft) W 262 0 min 65 W/m 2,9 C -0,4 C 38,6 km/h (6 Bft)
21.03.2017 16:54 7,4 C 73 % 1006,6 hPa 0,0 l/m 16,2 km/h (3 Bft) SW 234 0 min 56 W/m 2,9 C 1,4 C 25,7 km/h (4 Bft)
21.03.2017 16:57 7,4 C 73 % 1006,7 hPa 0,0 l/m 16,9 km/h (3 Bft) W-NW 294 0 min 53 W/m 2,9 C 1,1 C 29,0 km/h (5 Bft)
21.03.2017 17:00 7,4 C 73 % 1006,7 hPa 0,0 l/m 22,0 km/h (4 Bft) W 272 0 min 58 W/m 2,9 C -0,8 C 32,2 km/h (5 Bft)
21.03.2017 17:03 7,3 C 74 % 1006,6 hPa 0,0 l/m 18,9 km/h (3 Bft) W 281 0 min 63 W/m 3,0 C 0,2 C 27,4 km/h (5 Bft)
21.03.2017 17:06 7,3 C 74 % 1006,7 hPa 0,0 l/m 18,0 km/h (3 Bft) W-NW 296 0 min 58 W/m 3,0 C 0,6 C 32,2 km/h (5 Bft)
21.03.2017 17:09 7,3 C 74 % 1006,7 hPa 0,0 l/m 18,8 km/h (3 Bft) W 265 0 min 54 W/m 3,0 C 0,2 C 33,8 km/h (5 Bft)
21.03.2017 17:12 7,3 C 74 % 1006,8 hPa 0,0 l/m 22,3 km/h (4 Bft) W 273 0 min 53 W/m 3,0 C -1,0 C 35,4 km/h (5 Bft)
21.03.2017 17:15 7,2 C 73 % 1006,8 hPa 0,0 l/m 17,7 km/h (3 Bft) W 273 0 min 58 W/m 2,7 C 0,6 C 29,0 km/h (5 Bft)
21.03.2017 17:18 7,2 C 73 % 1006,8 hPa 0,0 l/m 19,7 km/h (3 Bft) W-SW 249 0 min 58 W/m 2,7 C -0,2 C 30,6 km/h (5 Bft)
21.03.2017 17:21 7,2 C 73 % 1006,9 hPa 0,0 l/m 21,5 km/h (4 Bft) W-NW 284 0 min 63 W/m 2,7 C -0,9 C 32,2 km/h (5 Bft)
21.03.2017 17:24 7,1 C 75 % 1007,0 hPa 0,0 l/m 17,8 km/h (3 Bft) W-SW 250 0 min 53 W/m 3,0 C 0,4 C 33,8 km/h (5 Bft)
21.03.2017 17:27 7,1 C 75 % 1006,9 hPa 0,0 l/m 18,6 km/h (3 Bft) W-SW 245 0 min 49 W/m 3,0 C 0,1 C 29,0 km/h (5 Bft)
21.03.2017 17:30 7,1 C 75 % 1006,9 hPa 0,0 l/m 20,0 km/h (4 Bft) W 259 0 min 58 W/m 3,0 C -0,5 C 38,6 km/h (6 Bft)
21.03.2017 17:33 7,1 C 75 % 1006,9 hPa 0,0 l/m 19,3 km/h (3 Bft) SW 225 0 min 65 W/m 3,0 C -0,2 C 41,8 km/h (6 Bft)
21.03.2017 17:36 7,1 C 75 % 1007,0 hPa 0,0 l/m 16,3 km/h (3 Bft) W 262 0 min 53 W/m 3,0 C 1,0 C 29,0 km/h (5 Bft)
21.03.2017 17:39 7,1 C 76 % 1007,1 hPa 0,0 l/m 20,8 km/h (4 Bft) W 271 0 min 37 W/m 3,2 C -0,7 C 32,2 km/h (5 Bft)
21.03.2017 17:42 6,9 C 74 % 1007,1 hPa 0,0 l/m 20,5 km/h (4 Bft) W-SW 254 0 min 33 W/m 2,6 C -0,9 C 30,6 km/h (5 Bft)
21.03.2017 17:45 6,9 C 74 % 1007,1 hPa 0,0 l/m 17,2 km/h (3 Bft) SW 232 0 min 33 W/m 2,6 C 0,4 C 25,7 km/h (4 Bft)
21.03.2017 17:48 6,8 C 74 % 1007,2 hPa 0,0 l/m 18,4 km/h (3 Bft) W-SW 245 0 min 33 W/m 2,5 C -0,2 C 30,6 km/h (5 Bft)
21.03.2017 17:51 6,8 C 74 % 1007,3 hPa 0,0 l/m 19,2 km/h (3 Bft) W 259 0 min 32 W/m 2,5 C -0,5 C 32,2 km/h (5 Bft)
21.03.2017 17:54 6,8 C 74 % 1007,4 hPa 0,0 l/m 16,6 km/h (3 Bft) W-SW 258 0 min 28 W/m 2,5 C 0,5 C 30,6 km/h (5 Bft)
21.03.2017 17:57 6,7 C 74 % 1007,4 hPa 0,0 l/m 18,1 km/h (3 Bft) SW 230 0 min 23 W/m 2,4 C -0,2 C 30,6 km/h (5 Bft)
21.03.2017 18:00 6,7 C 75 % 1007,5 hPa 0,0 l/m 18,5 km/h (3 Bft) W 264 0 min 26 W/m 2,6 C -0,4 C 30,6 km/h (5 Bft)
21.03.2017 18:03 6,7 C 75 % 1007,4 hPa 0,0 l/m 23,2 km/h (4 Bft) W-NW 298 0 min 26 W/m 2,6 C -2,1 C 32,2 km/h (5 Bft)
21.03.2017 18:06 6,7 C 75 % 1007,4 hPa 0,0 l/m 21,5 km/h (4 Bft) W 275 0 min 21 W/m 2,6 C -1,5 C 32,2 km/h (5 Bft)
21.03.2017 18:09 6,7 C 75 % 1007,5 hPa 0,0 l/m 20,8 km/h (4 Bft) W-NW 300 0 min 19 W/m 2,6 C -1,3 C 32,2 km/h (5 Bft)
21.03.2017 18:12 6,7 C 75 % 1007,5 hPa 0,0 l/m 19,7 km/h (3 Bft) SW 236 0 min 19 W/m 2,6 C -0,9 C 38,6 km/h (6 Bft)
21.03.2017 18:15 6,7 C 74 % 1007,5 hPa 0,0 l/m 15,9 km/h (3 Bft) W-SW 240 0 min 18 W/m 2,4 C 0,7 C 25,7 km/h (4 Bft)
21.03.2017 18:18 6,6 C 74 % 1007,6 hPa 0,0 l/m 14,5 km/h (3 Bft) W-SW 243 0 min 14 W/m 2,3 C 1,3 C 25,7 km/h (4 Bft)
21.03.2017 18:21 6,6 C 75 % 1007,6 hPa 0,0 l/m 17,4 km/h (3 Bft) SW 233 0 min 14 W/m 2,5 C -0,1 C 30,6 km/h (5 Bft)
21.03.2017 18:24 6,6 C 75 % 1007,6 hPa 0,0 l/m 19,5 km/h (3 Bft) W 263 0 min 11 W/m 2,5 C -0,9 C 33,8 km/h (5 Bft)
21.03.2017 18:27 6,6 C 75 % 1007,6 hPa 0,0 l/m 19,2 km/h (3 Bft) W 277 0 min 9 W/m 2,5 C -0,8 C 32,2 km/h (5 Bft)
21.03.2017 18:30 6,5 C 75 % 1007,7 hPa 0,0 l/m 18,5 km/h (3 Bft) W-NW 303 0 min 7 W/m 2,4 C -0,7 C 32,2 km/h (5 Bft)
21.03.2017 18:33 6,5 C 75 % 1007,7 hPa 0,0 l/m 19,9 km/h (4 Bft) W-SW 242 0 min 5 W/m 2,4 C -1,2 C 35,4 km/h (5 Bft)
21.03.2017 18:36 6,4 C 75 % 1007,7 hPa 0,0 l/m 18,5 km/h (3 Bft) W-NW 283 0 min 5 W/m 2,3 C -0,8 C 29,0 km/h (5 Bft)
21.03.2017 18:39 6,4 C 75 % 1007,8 hPa 0,0 l/m 21,7 km/h (4 Bft) W-SW 247 0 min 0 W/m 2,3 C -2,0 C 33,8 km/h (5 Bft)
21.03.2017 18:42 6,4 C 75 % 1007,9 hPa 0,0 l/m 17,6 km/h (3 Bft) SW 217 0 min 0 W/m 2,3 C -0,4 C 29,0 km/h (5 Bft)
21.03.2017 18:45 6,4 C 74 % 1007,9 hPa 0,0 l/m 20,2 km/h (4 Bft) S-SW 205 0 min 0 W/m 2,1 C -1,4 C 33,8 km/h (5 Bft)
21.03.2017 18:48 6,4 C 74 % 1007,9 hPa 0,0 l/m 20,2 km/h (4 Bft) W 259 0 min 0 W/m 2,1 C -1,4 C 33,8 km/h (5 Bft)
21.03.2017 18:51 6,4 C 73 % 1007,9 hPa 0,0 l/m 19,0 km/h (3 Bft) W-SW 250 0 min 0 W/m 1,9 C -1,0 C 25,7 km/h (4 Bft)
21.03.2017 18:54 6,4 C 74 % 1007,9 hPa 0,0 l/m 18,5 km/h (3 Bft) SW 223 0 min 0 W/m 2,1 C -0,8 C 30,6 km/h (5 Bft)
21.03.2017 18:57 6,4 C 74 % 1008,0 hPa 0,0 l/m 19,7 km/h (3 Bft) W 269 0 min 0 W/m 2,1 C -1,2 C 30,6 km/h (5 Bft)
21.03.2017 19:00 6,4 C 74 % 1008,0 hPa 0,0 l/m 18,3 km/h (3 Bft) SW 223 0 min 0 W/m 2,1 C -0,7 C 29,0 km/h (5 Bft)
21.03.2017 19:03 6,4 C 73 % 1008,1 hPa 0,0 l/m 16,8 km/h (3 Bft) W-SW 252 0 min 0 W/m 1,9 C -0,1 C 27,4 km/h (5 Bft)
21.03.2017 19:06 6,4 C 74 % 1008,1 hPa 0,0 l/m 15,5 km/h (3 Bft) W 269 0 min 0 W/m 2,1 C 0,5 C 30,6 km/h (5 Bft)
21.03.2017 19:09 6,4 C 74 % 1008,2 hPa 0,0 l/m 16,3 km/h (3 Bft) SW 232 0 min 0 W/m 2,1 C 0,2 C 32,2 km/h (5 Bft)
21.03.2017 19:12 6,4 C 74 % 1008,1 hPa 0,0 l/m 17,9 km/h (3 Bft) SW 234 0 min 0 W/m 2,1 C -0,5 C 29,0 km/h (5 Bft)
21.03.2017 19:15 6,4 C 74 % 1008,2 hPa 0,0 l/m 14,1 km/h (3 Bft) W 267 0 min 0 W/m 2,1 C 1,2 C 25,7 km/h (4 Bft)
21.03.2017 19:18 6,4 C 74 % 1008,2 hPa 0,0 l/m 18,5 km/h (3 Bft) W-SW 255 0 min 0 W/m 2,1 C -0,8 C 32,2 km/h (5 Bft)
21.03.2017 19:21 6,4 C 74 % 1008,3 hPa 0,0 l/m 19,2 km/h (3 Bft) SW 225 0 min 0 W/m 2,1 C -1,1 C 30,6 km/h (5 Bft)
21.03.2017 19:24 6,4 C 74 % 1008,3 hPa 0,0 l/m 16,4 km/h (3 Bft) SW 236 0 min 0 W/m 2,1 C 0,1 C 24,1 km/h (4 Bft)
21.03.2017 19:27 6,4 C 74 % 1008,4 hPa 0,0 l/m 16,1 km/h (3 Bft) W 265 0 min 0 W/m 2,1 C 0,3 C 32,2 km/h (5 Bft)
21.03.2017 19:30 6,4 C 74 % 1008,5 hPa 0,0 l/m 13,5 km/h (3 Bft) SW 219 0 min 0 W/m 2,1 C 1,5 C 25,7 km/h (4 Bft)
21.03.2017 19:33 6,4 C 75 % 1008,5 hPa 0,0 l/m 14,1 km/h (3 Bft) W 263 0 min 0 W/m 2,3 C 1,2 C 22,5 km/h (4 Bft)
21.03.2017 19:36 6,4 C 75 % 1008,6 hPa 0,0 l/m 16,3 km/h (3 Bft) W 265 0 min 0 W/m 2,3 C 0,2 C 27,4 km/h (5 Bft)
21.03.2017 19:39 6,4 C 75 % 1008,7 hPa 0,0 l/m 17,5 km/h (3 Bft) W-SW 245 0 min 0 W/m 2,3 C -0,4 C 32,2 km/h (5 Bft)
21.03.2017 19:42 6,4 C 75 % 1008,7 hPa 0,0 l/m 16,3 km/h (3 Bft) SW 227 0 min 0 W/m 2,3 C 0,2 C 29,0 km/h (5 Bft)
21.03.2017 19:45 6,4 C 76 % 1008,7 hPa 0,0 l/m 15,9 km/h (3 Bft) SW 228 0 min 0 W/m 2,5 C 0,3 C 29,0 km/h (5 Bft)
21.03.2017 19:48 6,4 C 75 % 1008,8 hPa 0,0 l/m 18,3 km/h (3 Bft) W 262 0 min 0 W/m 2,3 C -0,7 C 29,0 km/h (5 Bft)
21.03.2017 19:51 6,5 C 75 % 1008,9 hPa 0,0 l/m 16,3 km/h (3 Bft) W-SW 237 0 min 0 W/m 2,4 C 0,3 C 27,4 km/h (5 Bft)
21.03.2017 19:54 6,5 C 75 % 1009,0 hPa 0,0 l/m 13,9 km/h (3 Bft) SW 235 0 min 0 W/m 2,4 C 1,4 C 20,9 km/h (4 Bft)
21.03.2017 19:57 6,5 C 76 % 1009,0 hPa 0,0 l/m 16,9 km/h (3 Bft) W-SW 250 0 min 0 W/m 2,6 C 0,0 C 32,2 km/h (5 Bft)
21.03.2017 20:00 6,5 C 76 % 1009,0 hPa 0,0 l/m 15,0 km/h (3 Bft) W-SW 255 0 min 0 W/m 2,6 C 0,9 C 27,4 km/h (5 Bft)
21.03.2017 20:03 6,5 C 76 % 1009,1 hPa 0,0 l/m 17,3 km/h (3 Bft) S-SW 207 0 min 0 W/m 2,6 C -0,2 C 24,1 km/h (4 Bft)
21.03.2017 20:06 6,5 C 76 % 1009,1 hPa 0,0 l/m 14,3 km/h (3 Bft) SW 227 0 min 0 W/m 2,6 C 1,2 C 20,9 km/h (4 Bft)
21.03.2017 20:09 6,4 C 77 % 1009,1 hPa 0,0 l/m 11,4 km/h (2 Bft) SW 229 0 min 0 W/m 2,7 C 2,7 C 20,9 km/h (4 Bft)
21.03.2017 20:12 6,4 C 78 % 1009,0 hPa 0,0 l/m 8,9 km/h (2 Bft) W 265 0 min 0 W/m 2,8 C 4,4 C 19,3 km/h (3 Bft)
21.03.2017 20:15 6,4 C 78 % 1009,0 hPa 0,0 l/m 12,4 km/h (2 Bft) W 260 0 min 0 W/m 2,8 C 2,1 C 22,5 km/h (4 Bft)
21.03.2017 20:18 6,3 C 79 % 1009,0 hPa 0,0 l/m 9,6 km/h (2 Bft) SW 218 0 min 0 W/m 2,9 C 3,8 C 19,3 km/h (3 Bft)
21.03.2017 20:21 6,3 C 79 % 1009,1 hPa 0,0 l/m 13,3 km/h (3 Bft) W-SW 252 0 min 0 W/m 2,9 C 1,5 C 27,4 km/h (5 Bft)
21.03.2017 20:24 6,2 C 78 % 1009,0 hPa 0,0 l/m 18,2 km/h (3 Bft) S-SW 194 0 min 0 W/m 2,7 C -0,9 C 27,4 km/h (5 Bft)
21.03.2017 20:27 6,2 C 78 % 1009,1 hPa 0,0 l/m 14,8 km/h (3 Bft) W-SW 241 0 min 0 W/m 2,7 C 0,6 C 25,7 km/h (4 Bft)
21.03.2017 20:30 6,2 C 78 % 1009,1 hPa 0,0 l/m 12,2 km/h (2 Bft) SW 229 0 min 0 W/m 2,7 C 2,0 C 22,5 km/h (4 Bft)
21.03.2017 20:33 6,2 C 78 % 1009,1 hPa 0,0 l/m 10,9 km/h (2 Bft) SW 234 0 min 0 W/m 2,7 C 2,8 C 19,3 km/h (3 Bft)
21.03.2017 20:36 6,2 C 78 % 1009,2 hPa 0,0 l/m 12,1 km/h (2 Bft) W-SW 254 0 min 0 W/m 2,7 C 2,1 C 20,9 km/h (4 Bft)
21.03.2017 20:39 6,1 C 78 % 1009,2 hPa 0,0 l/m 13,6 km/h (3 Bft) SW 223 0 min 0 W/m 2,6 C 1,1 C 24,1 km/h (4 Bft)
21.03.2017 20:42 6,1 C 78 % 1009,2 hPa 0,0 l/m 15,5 km/h (3 Bft) W-SW 242 0 min 0 W/m 2,6 C 0,2 C 24,1 km/h (4 Bft)
21.03.2017 20:45 6,1 C 78 % 1009,2 hPa 0,0 l/m 14,8 km/h (3 Bft) SW 215 0 min 0 W/m 2,6 C 0,5 C 22,5 km/h (4 Bft)
21.03.2017 20:48 6,0 C 78 % 1009,2 hPa 0,0 l/m 12,9 km/h (3 Bft) SW 228 0 min 0 W/m 2,5 C 1,4 C 24,1 km/h (4 Bft)
21.03.2017 20:51 6,0 C 78 % 1009,2 hPa 0,0 l/m 15,4 km/h (3 Bft) S-SW 213 0 min 0 W/m 2,5 C 0,1 C 25,7 km/h (4 Bft)
21.03.2017 20:54 6,0 C 78 % 1009,2 hPa 0,0 l/m 16,7 km/h (3 Bft) SW 221 0 min 0 W/m 2,5 C -0,5 C 25,7 km/h (4 Bft)
21.03.2017 20:57 5,9 C 78 % 1009,2 hPa 0,0 l/m 13,4 km/h (3 Bft) S-SW 211 0 min 0 W/m 2,4 C 1,0 C 20,9 km/h (4 Bft)
21.03.2017 21:00 5,9 C 78 % 1009,2 hPa 0,0 l/m 13,4 km/h (3 Bft) SW 232 0 min 0 W/m 2,4 C 1,0 C 22,5 km/h (4 Bft)
21.03.2017 21:03 5,9 C 77 % 1009,2 hPa 0,0 l/m 17,0 km/h (3 Bft) SW 221 0 min 0 W/m 2,2 C -0,8 C 24,1 km/h (4 Bft)
21.03.2017 21:06 5,9 C 77 % 1009,2 hPa 0,0 l/m 13,2 km/h (3 Bft) W-SW 242 0 min 0 W/m 2,2 C 1,1 C 20,9 km/h (4 Bft)
21.03.2017 21:09 5,9 C 77 % 1009,2 hPa 0,0 l/m 16,1 km/h (3 Bft) SW 231 0 min 0 W/m 2,2 C -0,4 C 24,1 km/h (4 Bft)
21.03.2017 21:12 5,9 C 77 % 1009,2 hPa 0,0 l/m 16,7 km/h (3 Bft) W-SW 242 0 min 0 W/m 2,2 C -0,6 C 24,1 km/h (4 Bft)
21.03.2017 21:15 5,9 C 77 % 1009,3 hPa 0,0 l/m 14,1 km/h (3 Bft) SW 227 0 min 0 W/m 2,2 C 0,6 C 24,1 km/h (4 Bft)
21.03.2017 21:18 5,8 C 77 % 1009,4 hPa 0,0 l/m 14,5 km/h (3 Bft) W 265 0 min 0 W/m 2,1 C 0,3 C 25,7 km/h (4 Bft)
21.03.2017 21:21 5,8 C 78 % 1009,3 hPa 0,0 l/m 12,1 km/h (2 Bft) SW 227 0 min 0 W/m 2,3 C 1,6 C 19,3 km/h (3 Bft)
21.03.2017 21:24 5,8 C 78 % 1009,4 hPa 0,0 l/m 14,9 km/h (3 Bft) SW 219 0 min 0 W/m 2,3 C 0,1 C 24,1 km/h (4 Bft)
21.03.2017 21:27 5,8 C 78 % 1009,4 hPa 0,0 l/m 15,3 km/h (3 Bft) SW 231 0 min 0 W/m 2,3 C -0,1 C 24,1 km/h (4 Bft)
21.03.2017 21:30 5,7 C 78 % 1009,5 hPa 0,0 l/m 15,0 km/h (3 Bft) SW 228 0 min 0 W/m 2,2 C -0,1 C 20,9 km/h (4 Bft)
21.03.2017 21:33 5,8 C 78 % 1009,5 hPa 0,0 l/m 16,8 km/h (3 Bft) S-SW 212 0 min 0 W/m 2,3 C -0,8 C 27,4 km/h (5 Bft)
21.03.2017 21:36 5,8 C 78 % 1009,5 hPa 0,0 l/m 13,7 km/h (3 Bft) W-SW 240 0 min 0 W/m 2,3 C 0,7 C 19,3 km/h (3 Bft)
21.03.2017 21:39 5,7 C 78 % 1009,6 hPa 0,0 l/m 13,7 km/h (3 Bft) S-SW 201 0 min 0 W/m 2,2 C 0,6 C 19,3 km/h (3 Bft)
21.03.2017 21:42 5,7 C 79 % 1009,7 hPa 0,0 l/m 13,1 km/h (3 Bft) S-SW 212 0 min 0 W/m 2,3 C 0,9 C 20,9 km/h (4 Bft)
21.03.2017 21:45 5,7 C 79 % 1009,7 hPa 0,0 l/m 15,1 km/h (3 Bft) SW 223 0 min 0 W/m 2,3 C -0,1 C 25,7 km/h (4 Bft)
21.03.2017 21:48 5,7 C 79 % 1009,7 hPa 0,0 l/m 17,2 km/h (3 Bft) S-SW 211 0 min 0 W/m 2,3 C -1,1 C 25,7 km/h (4 Bft)
21.03.2017 21:51 5,7 C 79 % 1009,7 hPa 0,0 l/m 14,8 km/h (3 Bft) SW 217 0 min 0 W/m 2,3 C 0,0 C 22,5 km/h (4 Bft)
21.03.2017 21:54 5,7 C 79 % 1009,7 hPa 0,0 l/m 16,0 km/h (3 Bft) S 188 0 min 0 W/m 2,3 C -0,6 C 22,5 km/h (4 Bft)
21.03.2017 21:57 5,6 C 79 % 1009,7 hPa 0,0 l/m 13,1 km/h (3 Bft) SW 220 0 min 0 W/m 2,3 C 0,8 C 17,7 km/h (3 Bft)
21.03.2017 22:00 5,6 C 79 % 1009,8 hPa 0,0 l/m 13,6 km/h (3 Bft) SW 224 0 min 0 W/m 2,3 C 0,5 C 22,5 km/h (4 Bft)
21.03.2017 22:03 5,6 C 78 % 1009,7 hPa 0,0 l/m 14,8 km/h (3 Bft) S-SW 199 0 min 0 W/m 2,1 C -0,1 C 20,9 km/h (4 Bft)
21.03.2017 22:06 5,6 C 78 % 1009,7 hPa 0,0 l/m 17,5 km/h (3 Bft) SW 222 0 min 0 W/m 2,1 C -1,4 C 25,7 km/h (4 Bft)
21.03.2017 22:09 5,6 C 78 % 1009,8 hPa 0,0 l/m 16,5 km/h (3 Bft) W-SW 247 0 min 0 W/m 2,1 C -0,9 C 22,5 km/h (4 Bft)
21.03.2017 22:12 5,6 C 78 % 1009,8 hPa 0,0 l/m 14,1 km/h (3 Bft) W-SW 240 0 min 0 W/m 2,1 C 0,3 C 20,9 km/h (4 Bft)
21.03.2017 22:15 5,6 C 78 % 1009,8 hPa 0,0 l/m 16,7 km/h (3 Bft) SW 218 0 min 0 W/m 2,1 C -1,0 C 22,5 km/h (4 Bft)
21.03.2017 22:18 5,6 C 78 % 1009,8 hPa 0,0 l/m 15,3 km/h (3 Bft) W-SW 256 0 min 0 W/m 2,1 C -0,3 C 22,5 km/h (4 Bft)
21.03.2017 22:21 5,6 C 78 % 1009,9 hPa 0,0 l/m 14,4 km/h (3 Bft) SW 225 0 min 0 W/m 2,1 C 0,1 C 22,5 km/h (4 Bft)
21.03.2017 22:24 5,6 C 77 % 1009,9 hPa 0,0 l/m 14,3 km/h (3 Bft) S-SW 213 0 min 0 W/m 1,9 C 0,2 C 20,9 km/h (4 Bft)
21.03.2017 22:27 5,5 C 77 % 1010,0 hPa 0,0 l/m 11,8 km/h (2 Bft) SW 221 0 min 0 W/m 1,8 C 1,5 C 20,9 km/h (4 Bft)
21.03.2017 22:30 5,5 C 77 % 1010,0 hPa 0,0 l/m 11,9 km/h (2 Bft) W-SW 253 0 min 0 W/m 1,8 C 1,4 C 17,7 km/h (3 Bft)
21.03.2017 22:33 5,4 C 78 % 1010,1 hPa 0,0 l/m 12,9 km/h (3 Bft) W-SW 244 0 min 0 W/m 1,9 C 0,7 C 19,3 km/h (3 Bft)
21.03.2017 22:36 5,4 C 78 % 1010,1 hPa 0,0 l/m 12,6 km/h (3 Bft) S-SW 196 0 min 0 W/m 1,9 C 0,9 C 20,9 km/h (4 Bft)
21.03.2017 22:39 5,3 C 78 % 1010,1 hPa 0,0 l/m 11,9 km/h (2 Bft) S-SW 212 0 min 0 W/m 1,8 C 1,2 C 19,3 km/h (3 Bft)
21.03.2017 22:42 5,3 C 79 % 1010,1 hPa 0,0 l/m 11,7 km/h (2 Bft) S-SW 210 0 min 0 W/m 2,0 C 1,3 C 20,9 km/h (4 Bft)
21.03.2017 22:45 5,3 C 79 % 1010,2 hPa 0,0 l/m 11,9 km/h (2 Bft) S-SW 197 0 min 0 W/m 2,0 C 1,2 C 19,3 km/h (3 Bft)
21.03.2017 22:48 5,3 C 79 % 1010,1 hPa 0,0 l/m 11,4 km/h (2 Bft) S-SW 196 0 min 0 W/m 2,0 C 1,5 C 20,9 km/h (4 Bft)
21.03.2017 22:51 5,2 C 80 % 1010,2 hPa 0,0 l/m 11,1 km/h (2 Bft) SW 222 0 min 0 W/m 2,0 C 1,6 C 16,1 km/h (3 Bft)
21.03.2017 22:54 5,2 C 80 % 1010,2 hPa 0,0 l/m 10,6 km/h (2 Bft) SW 222 0 min 0 W/m 2,0 C 1,9 C 25,7 km/h (4 Bft)
21.03.2017 22:57 5,1 C 80 % 1010,2 hPa 0,0 l/m 10,6 km/h (2 Bft) SW 215 0 min 0 W/m 1,9 C 1,8 C 19,3 km/h (3 Bft)
21.03.2017 23:00 5,0 C 80 % 1010,3 hPa 0,0 l/m 8,8 km/h (2 Bft) SW 231 0 min 0 W/m 1,8 C 3,0 C 19,3 km/h (3 Bft)
21.03.2017 23:03 4,9 C 81 % 1010,3 hPa 0,0 l/m 9,2 km/h (2 Bft) SW 227 0 min 0 W/m 1,9 C 2,5 C 17,7 km/h (3 Bft)
21.03.2017 23:06 4,8 C 82 % 1010,3 hPa 0,0 l/m 12,0 km/h (2 Bft) SW 224 0 min 0 W/m 2,0 C 0,5 C 20,9 km/h (4 Bft)
21.03.2017 23:09 4,8 C 82 % 1010,3 hPa 0,0 l/m 12,4 km/h (2 Bft) S-SW 213 0 min 0 W/m 2,0 C 0,3 C 20,9 km/h (4 Bft)
21.03.2017 23:12 4,8 C 82 % 1010,3 hPa 0,0 l/m 11,8 km/h (2 Bft) S-SW 199 0 min 0 W/m 2,0 C 0,7 C 17,7 km/h (3 Bft)
21.03.2017 23:15 4,7 C 82 % 1010,3 hPa 0,0 l/m 11,8 km/h (2 Bft) S-SW 211 0 min 0 W/m 1,9 C 0,5 C 19,3 km/h (3 Bft)
21.03.2017 23:18 4,7 C 82 % 1010,3 hPa 0,0 l/m 11,7 km/h (2 Bft) SW 217 0 min 0 W/m 1,9 C 0,6 C 20,9 km/h (4 Bft)
21.03.2017 23:21 4,7 C 82 % 1010,3 hPa 0,0 l/m 13,8 km/h (3 Bft) S-SW 200 0 min 0 W/m 1,9 C -0,6 C 22,5 km/h (4 Bft)
21.03.2017 23:24 4,7 C 81 % 1010,4 hPa 0,0 l/m 12,6 km/h (3 Bft) S-SW 202 0 min 0 W/m 1,7 C 0,0 C 17,7 km/h (3 Bft)
21.03.2017 23:27 4,8 C 81 % 1010,4 hPa 0,0 l/m 12,4 km/h (2 Bft) SW 220 0 min 0 W/m 1,8 C 0,3 C 17,7 km/h (3 Bft)
21.03.2017 23:30 4,7 C 81 % 1010,4 hPa 0,0 l/m 11,4 km/h (2 Bft) S-SW 198 0 min 0 W/m 1,7 C 0,8 C 20,9 km/h (4 Bft)
21.03.2017 23:33 4,7 C 81 % 1010,4 hPa 0,0 l/m 13,4 km/h (3 Bft) SW 216 0 min 0 W/m 1,7 C -0,4 C 20,9 km/h (4 Bft)
21.03.2017 23:36 4,7 C 81 % 1010,4 hPa 0,0 l/m 12,8 km/h (3 Bft) S-SW 210 0 min 0 W/m 1,7 C -0,1 C 20,9 km/h (4 Bft)
21.03.2017 23:39 4,7 C 81 % 1010,4 hPa 0,0 l/m 12,6 km/h (3 Bft) SW 223 0 min 0 W/m 1,7 C 0,0 C 17,7 km/h (3 Bft)
21.03.2017 23:42 4,7 C 81 % 1010,4 hPa 0,0 l/m 15,8 km/h (3 Bft) S 191 0 min 0 W/m 1,7 C -1,7 C 25,7 km/h (4 Bft)
21.03.2017 23:45 4,8 C 81 % 1010,4 hPa 0,0 l/m 13,4 km/h (3 Bft) S 186 0 min 0 W/m 1,8 C -0,3 C 19,3 km/h (3 Bft)
21.03.2017 23:48 4,8 C 81 % 1010,5 hPa 0,0 l/m 12,5 km/h (2 Bft) S-SW 201 0 min 0 W/m 1,8 C 0,2 C 22,5 km/h (4 Bft)
21.03.2017 23:51 4,8 C 82 % 1010,5 hPa 0,0 l/m 13,5 km/h (3 Bft) SW 227 0 min 0 W/m 2,0 C -0,4 C 20,9 km/h (4 Bft)
21.03.2017 23:54 4,8 C 82 % 1010,5 hPa 0,0 l/m 13,7 km/h (3 Bft) S-SW 205 0 min 0 W/m 2,0 C -0,5 C 20,9 km/h (4 Bft)
21.03.2017 23:57 4,8 C 82 % 1010,5 hPa 0,0 l/m 13,5 km/h (3 Bft) SW 221 0 min 0 W/m 2,0 C -0,4 C 20,9 km/h (4 Bft)
_ Min-Zeit 23:15 15:51 00:00 - 23:00 - - - - 23:24 18:03 06:48
Minimum _ 4,7 C 73 % 999,1 hPa - 8,8 km/h (2 Bft) - - - - 1,7 C -2,1 C 12,9 km/h (3 Bft)
_ Max-Zeit 11:12 07:42 23:48 11:21 13:09 - - 11:03 13:06 09:42 14:36 13:51
Maximum _ 9,8 C 97 % 1010,5 hPa 0,2 l/m 28,7 km/h
W (5 Bft)
- - 3 min 621 W/m 7,4 C 4,7 C 49,9 km/h
W-NW (7 Bft)
Durchschnitt _ 7,2 C 85 % 1004,1 hPa #0,6 l/m 16,6 km/h (3 Bft) SW - #3:24 h 205 W/m 4,8 C 1,2 C 27,5 km/h (5 Bft)
2017 Cux-Wetter.de -Die Nutzung der Wetterdaten nur mit ausdrcklicher Genehmigung